Time,TemperatureF,DewpointF,PressureIn,WindDirection,WindDirectionDegrees,WindSpeedMPH,WindSpeedGustMPH,Humidity,HourlyPrecipIn,Conditions,Clouds,dailyrainin,SoftwareType,DateUTC
2013-08-23 07:10:00,73.2,72.3,30.04,SSE,167,0.0,1.0,97,0.00,,---,0.01,VWS V13.01,2013-08-23 12:10:00,
2013-08-23 07:11:00,73.2,72.3,30.04,SSE,167,0.0,1.0,97,0.00,,---,0.01,VWS V13.01,2013-08-23 12:11:00,
2013-08-23 07:12:00,73.3,72.4,30.04,SSE,167,0.0,1.0,97,0.03,,---,0.01,VWS V13.01,2013-08-23 12:12:00,
2013-08-23 07:13:00,73.3,72.4,30.04,SSE,167,0.0,1.0,97,0.03,,---,0.01,VWS V13.01,2013-08-23 12:13:00,
2013-08-23 07:14:00,73.4,72.5,30.05,SSE,167,0.0,1.0,97,0.03,,---,0.01,VWS V13.01,2013-08-23 12:14:00,
2013-08-23 07:15:00,73.5,72.6,30.05,SSE,167,0.0,1.0,97,0.03,,---,0.01,VWS V13.01,2013-08-23 12:15:00,
2013-08-23 07:16:00,73.6,72.7,30.04,SSE,167,0.0,1.0,97,0.03,,---,0.01,VWS V13.01,2013-08-23 12:16:00,
2013-08-23 07:17:00,73.6,72.7,30.05,SSE,167,0.0,1.0,97,0.03,,---,0.01,VWS V13.01,2013-08-23 12:17:00,
2013-08-23 07:18:00,73.7,72.8,30.05,SSE,167,0.0,1.0,97,0.03,,---,0.01,VWS V13.01,2013-08-23 12:18:00,
2013-08-23 07:19:00,73.7,72.8,30.05,SSE,167,0.0,1.0,97,0.03,,---,0.01,VWS V13.01,2013-08-23 12:19:00,
2013-08-23 07:20:00,73.8,72.9,30.05,SSE,167,0.0,1.0,97,0.03,,---,0.01,VWS V13.01,2013-08-23 12:20:00,
2013-08-23 07:21:00,73.8,72.9,30.05,SSE,167,0.0,1.0,97,0.03,,---,0.01,VWS V13.01,2013-08-23 12:21:00,
2013-08-23 07:22:00,73.8,72.9,30.05,SSE,167,0.0,1.0,97,0.03,,---,0.01,VWS V13.01,2013-08-23 12:22:00,
2013-08-23 07:23:00,73.8,72.9,30.05,SSE,167,0.0,1.0,97,0.03,,---,0.01,VWS V13.01,2013-08-23 12:23:00,
2013-08-23 07:24:00,73.9,73.0,30.05,SSE,167,0.0,1.0,97,0.03,,---,0.01,VWS V13.01,2013-08-23 12:24:00,
2013-08-23 07:25:00,73.9,73.0,30.05,SSE,167,1.0,2.0,97,0.03,,---,0.01,VWS V13.01,2013-08-23 12:25:00,
2013-08-23 07:26:00,74.0,73.1,30.05,SSE,167,0.0,2.0,97,0.03,,---,0.01,VWS V13.01,2013-08-23 12:26:00,
2013-08-23 07:27:00,74.0,73.1,30.05,SSE,167,0.0,2.0,97,0.03,,---,0.01,VWS V13.01,2013-08-23 12:27:00,
2013-08-23 07:28:00,74.1,73.2,30.05,SSE,167,0.0,2.0,97,0.03,,---,0.01,VWS V13.01,2013-08-23 12:28:00,
2013-08-23 07:29:00,74.2,73.3,30.05,SSE,167,0.0,2.0,97,0.03,,---,0.01,VWS V13.01,2013-08-23 12:29:00,
2013-08-23 07:30:00,74.3,73.4,30.05,SSE,167,0.0,2.0,97,0.03,,---,0.01,VWS V13.01,2013-08-23 12:30:00,
2013-08-23 07:31:00,74.3,73.4,30.05,SSE,167,0.0,0.0,97,0.03,,---,0.01,VWS V13.01,2013-08-23 12:31:00,
2013-08-23 07:32:00,74.4,73.5,30.05,SSE,167,0.0,0.0,97,0.03,,---,0.01,VWS V13.01,2013-08-23 12:32:00,
2013-08-23 07:33:00,74.5,73.6,30.05,SSE,167,0.0,0.0,97,0.03,,---,0.01,VWS V13.01,2013-08-23 12:33:00,
2013-08-23 07:34:00,74.5,73.6,30.05,SSE,167,0.0,0.0,97,0.03,,---,0.01,VWS V13.01,2013-08-23 12:34:00,
2013-08-23 07:35:00,74.6,73.7,30.05,SSE,167,0.0,0.0,97,0.03,,---,0.01,VWS V13.01,2013-08-23 12:35:00,
2013-08-23 07:36:00,74.6,73.7,30.05,SSE,167,0.0,0.0,97,0.03,,---,0.01,VWS V13.01,2013-08-23 12:36:00,
2013-08-23 07:37:00,74.7,73.8,30.05,SSE,167,0.0,0.0,97,0.03,,---,0.01,VWS V13.01,2013-08-23 12:37:00,
2013-08-23 07:38:00,74.8,73.9,30.05,SSE,167,0.0,0.0,97,0.03,,---,0.01,VWS V13.01,2013-08-23 12:38:00,
2013-08-23 07:39:00,74.8,73.9,30.05,SSE,167,0.0,0.0,97,0.03,,---,0.01,VWS V13.01,2013-08-23 12:39:00,
2013-08-23 07:40:00,74.9,74.0,30.05,SSE,167,0.0,0.0,97,0.03,,---,0.01,VWS V13.01,2013-08-23 12:40:00,
2013-08-23 07:41:00,74.9,74.0,30.05,SSE,167,0.0,0.0,97,0.03,,---,0.01,VWS V13.01,2013-08-23 12:41:00,
2013-08-23 07:42:00,75.0,74.1,30.05,SSE,167,0.0,0.0,97,0.03,,---,0.01,VWS V13.01,2013-08-23 12:42:00,
2013-08-23 07:43:00,75.1,74.2,30.05,SSE,167,0.0,0.0,97,0.03,,---,0.01,VWS V13.01,2013-08-23 12:43:00,
2013-08-23 07:44:00,75.2,74.3,30.05,SSE,167,0.0,0.0,97,0.03,,---,0.01,VWS V13.01,2013-08-23 12:44:00,
2013-08-23 07:45:00,75.3,74.4,30.05,SSE,167,0.0,0.0,97,0.03,,---,0.01,VWS V13.01,2013-08-23 12:45:00,
2013-08-23 07:46:00,75.4,74.5,30.05,SSE,167,0.0,0.0,97,0.03,,---,0.01,VWS V13.01,2013-08-23 12:46:00,
2013-08-23 07:47:00,75.5,74.6,30.05,SSE,167,0.0,0.0,97,0.03,,---,0.01,VWS V13.01,2013-08-23 12:47:00,
2013-08-23 07:48:00,75.6,74.7,30.05,SSE,167,0.0,0.0,97,0.03,,---,0.01,VWS V13.01,2013-08-23 12:48:00,
2013-08-23 07:49:00,75.8,74.9,30.05,SSE,167,0.0,0.0,97,0.03,,---,0.01,VWS V13.01,2013-08-23 12:49:00,
2013-08-23 07:50:00,75.8,74.9,30.05,SSE,167,0.0,0.0,97,0.03,,---,0.01,VWS V13.01,2013-08-23 12:50:00,
2013-08-23 07:51:00,76.0,75.1,30.05,SSE,167,0.0,0.0,97,0.03,,---,0.01,VWS V13.01,2013-08-23 12:51:00,
2013-08-23 07:52:00,76.1,75.2,30.05,SSE,167,0.0,0.0,97,0.03,,---,0.01,VWS V13.01,2013-08-23 12:52:00,
2013-08-23 07:53:00,76.2,75.3,30.05,SSE,167,0.0,0.0,97,0.03,,---,0.01,VWS V13.01,2013-08-23 12:53:00,
2013-08-23 07:54:00,76.4,75.5,30.05,SSE,167,0.0,0.0,97,0.03,,---,0.01,VWS V13.01,2013-08-23 12:54:00,
2013-08-23 07:55:00,76.5,75.6,30.05,SSE,167,0.0,0.0,97,0.03,,---,0.01,VWS V13.01,2013-08-23 12:55:00,
2013-08-23 07:56:00,76.6,75.7,30.05,SSE,167,0.0,0.0,97,0.03,,---,0.01,VWS V13.01,2013-08-23 12:56:00,
2013-08-23 07:57:00,76.6,75.7,30.05,SSE,167,0.0,0.0,97,0.03,,---,0.01,VWS V13.01,2013-08-23 12:57:00,
2013-08-23 07:58:00,76.7,75.5,30.05,SSE,167,0.0,0.0,96,0.03,,---,0.01,VWS V13.01,2013-08-23 12:58:00,
2013-08-23 07:59:00,76.8,75.6,30.05,SSE,167,0.0,0.0,96,0.03,,---,0.01,VWS V13.01,2013-08-23 12:59:00,
2013-08-23 08:00:00,76.8,75.6,30.05,SSE,167,0.0,0.0,96,0.03,,---,0.01,VWS V13.01,2013-08-23 13:00:00,
2013-08-23 08:01:00,76.9,75.7,30.05,SSE,167,0.0,0.0,96,0.03,,---,0.01,VWS V13.01,2013-08-23 13:01:00,
2013-08-23 08:02:00,77.0,75.8,30.05,SSE,167,0.0,0.0,96,0.03,,---,0.01,VWS V13.01,2013-08-23 13:02:00,
2013-08-23 08:03:00,77.0,75.8,30.05,SSE,167,0.0,0.0,96,0.03,,---,0.01,VWS V13.01,2013-08-23 13:03:00,
2013-08-23 08:04:00,77.0,75.5,30.05,SSE,167,0.0,1.0,95,0.03,,---,0.01,VWS V13.01,2013-08-23 13:04:00,
2013-08-23 08:05:00,77.0,75.5,30.05,SSE,167,0.0,1.0,95,0.03,,---,0.01,VWS V13.01,2013-08-23 13:05:00,
2013-08-23 08:06:00,77.1,75.6,30.05,SSE,167,0.0,1.0,95,0.03,,---,0.01,VWS V13.01,2013-08-23 13:06:00,
2013-08-23 08:07:00,77.2,75.7,30.05,SSE,167,0.0,2.0,95,0.03,,---,0.01,VWS V13.01,2013-08-23 13:07:00,
2013-08-23 08:08:00,77.2,75.7,30.05,SSE,167,1.0,3.0,95,0.03,,---,0.01,VWS V13.01,2013-08-23 13:08:00,
2013-08-23 08:09:00,77.3,75.8,30.05,SSE,167,1.0,3.0,95,0.03,,---,0.01,VWS V13.01,2013-08-23 13:09:00,
2013-08-23 08:10:00,77.3,75.4,30.05,SSE,167,0.0,3.0,94,0.03,,---,0.01,VWS V13.01,2013-08-23 13:10:00,
2013-08-23 08:11:00,77.4,75.5,30.05,SSE,167,0.0,3.0,94,0.03,,---,0.01,VWS V13.01,2013-08-23 13:11:00,
2013-08-23 08:12:00,77.5,75.6,30.05,SSE,167,0.0,3.0,94,0.03,,---,0.01,VWS V13.01,2013-08-23 13:12:00,
2013-08-23 08:13:00,77.6,75.7,30.05,SSE,167,0.0,3.0,94,0.03,,---,0.01,VWS V13.01,2013-08-23 13:13:00,
2013-08-23 08:14:00,77.7,75.8,30.05,SSE,167,0.0,3.0,94,0.03,,---,0.01,VWS V13.01,2013-08-23 13:14:00,
2013-08-23 08:15:00,77.8,75.9,30.05,SSE,167,0.0,3.0,94,0.03,,---,0.01,VWS V13.01,2013-08-23 13:15:00,
2013-08-23 08:16:00,77.8,75.6,30.05,SSE,167,0.0,3.0,93,0.03,,---,0.01,VWS V13.01,2013-08-23 13:16:00,
2013-08-23 08:17:00,77.9,76.0,30.05,SSE,167,0.0,3.0,94,0.03,,---,0.01,VWS V13.01,2013-08-23 13:17:00,
2013-08-23 08:18:00,78.0,75.8,30.05,SSE,167,0.0,3.0,93,0.03,,---,0.01,VWS V13.01,2013-08-23 13:18:00,
2013-08-23 08:19:00,78.1,75.9,30.05,SSE,167,0.0,3.0,93,0.03,,---,0.01,VWS V13.01,2013-08-23 13:19:00,
2013-08-23 08:20:00,78.2,76.0,30.05,SSE,167,2.0,3.0,93,0.03,,---,0.01,VWS V13.01,2013-08-23 13:20:00,
2013-08-23 08:21:00,78.3,76.1,30.05,SSE,167,0.0,3.0,93,0.03,,---,0.01,VWS V13.01,2013-08-23 13:21:00,
2013-08-23 08:22:00,78.3,75.8,30.05,SSE,167,3.0,4.0,92,0.03,,---,0.01,VWS V13.01,2013-08-23 13:22:00,
2013-08-23 08:23:00,78.4,75.9,30.05,SSE,167,3.0,4.0,92,0.03,,---,0.01,VWS V13.01,2013-08-23 13:23:00,
2013-08-23 08:24:00,78.5,75.7,30.05,SSE,167,0.0,4.0,91,0.03,,---,0.01,VWS V13.01,2013-08-23 13:24:00,
2013-08-23 08:25:00,78.5,75.7,30.05,SSE,167,0.0,4.0,91,0.03,,---,0.01,VWS V13.01,2013-08-23 13:25:00,
2013-08-23 08:26:00,78.7,75.9,30.05,SSE,167,0.0,4.0,91,0.03,,---,0.01,VWS V13.01,2013-08-23 13:26:00,
2013-08-23 08:27:00,78.7,76.2,30.05,SSE,167,0.0,4.0,92,0.03,,---,0.01,VWS V13.01,2013-08-23 13:27:00,
2013-08-23 08:28:00,78.7,76.2,30.05,SSE,167,0.0,4.0,92,0.03,,---,0.01,VWS V13.01,2013-08-23 13:28:00,
2013-08-23 08:29:00,78.8,75.9,30.05,SSE,167,0.0,4.0,91,0.03,,---,0.01,VWS V13.01,2013-08-23 13:29:00,
2013-08-23 08:30:00,78.9,76.4,30.05,SSE,167,0.0,4.0,92,0.03,,---,0.01,VWS V13.01,2013-08-23 13:30:00,
2013-08-23 08:31:00,79.0,76.5,30.05,SSE,167,0.0,0.0,92,0.01,,---,0.02,VWS V13.01,2013-08-23 13:31:00,
2013-08-23 08:32:00,79.1,76.6,30.05,SSE,167,0.0,0.0,92,0.01,,---,0.02,VWS V13.01,2013-08-23 13:32:00,
2013-08-23 08:33:00,79.2,76.3,30.05,SSE,167,0.0,1.0,91,0.01,,---,0.02,VWS V13.01,2013-08-23 13:33:00,
2013-08-23 08:34:00,79.3,76.1,30.05,SSE,167,3.0,3.0,90,0.01,,---,0.02,VWS V13.01,2013-08-23 13:34:00,
2013-08-23 08:35:00,79.3,76.1,30.05,SSE,167,2.0,3.0,90,0.01,,---,0.02,VWS V13.01,2013-08-23 13:35:00,
2013-08-23 08:36:00,79.3,76.1,30.05,SSE,167,2.0,4.0,90,0.01,,---,0.02,VWS V13.01,2013-08-23 13:36:00,
2013-08-23 08:37:00,79.4,76.2,30.05,SSE,167,0.0,4.0,90,0.01,,---,0.02,VWS V13.01,2013-08-23 13:37:00,
2013-08-23 08:38:00,79.4,75.9,30.05,SSE,167,2.0,4.0,89,0.01,,---,0.02,VWS V13.01,2013-08-23 13:38:00,
2013-08-23 08:39:00,79.4,75.5,30.05,SSE,167,3.0,5.0,88,0.01,,---,0.02,VWS V13.01,2013-08-23 13:39:00,
2013-08-23 08:40:00,79.5,76.0,30.05,SSE,167,0.0,5.0,89,0.01,,---,0.02,VWS V13.01,2013-08-23 13:40:00,
2013-08-23 08:41:00,79.6,76.1,30.05,SSE,167,0.0,5.0,89,0.01,,---,0.02,VWS V13.01,2013-08-23 13:41:00,
2013-08-23 08:42:00,79.7,76.2,30.05,SSE,167,2.0,5.0,89,0.01,,---,0.02,VWS V13.01,2013-08-23 13:42:00,
2013-08-23 08:43:00,79.7,76.2,30.05,SSE,167,3.0,5.0,89,0.01,,---,0.02,VWS V13.01,2013-08-23 13:43:00,
2013-08-23 08:44:00,79.7,76.2,30.05,SSE,167,0.0,5.0,89,0.01,,---,0.02,VWS V13.01,2013-08-23 13:44:00,
2013-08-23 08:45:00,79.8,76.6,30.05,SSE,167,0.0,5.0,90,0.02,,---,0.03,VWS V13.01,2013-08-23 13:45:00,
2013-08-23 08:46:00,80.0,76.8,30.05,SSE,167,0.0,5.0,90,0.02,,---,0.03,VWS V13.01,2013-08-23 13:46:00,
2013-08-23 08:47:00,80.0,76.5,30.05,SSE,167,2.0,5.0,89,0.02,,---,0.03,VWS V13.01,2013-08-23 13:47:00,
2013-08-23 08:48:00,80.0,76.1,30.05,SSE,167,3.0,5.0,88,0.02,,---,0.03,VWS V13.01,2013-08-23 13:48:00,
2013-08-23 08:49:00,80.1,75.9,30.05,SSE,167,0.0,5.0,87,0.02,,---,0.03,VWS V13.01,2013-08-23 13:49:00,
2013-08-23 08:50:00,80.2,76.0,30.05,SSE,167,0.0,5.0,87,0.02,,---,0.03,VWS V13.01,2013-08-23 13:50:00,
2013-08-23 08:51:00,80.2,76.3,30.05,SSE,167,0.0,5.0,88,0.02,,---,0.03,VWS V13.01,2013-08-23 13:51:00,
2013-08-23 08:52:00,80.3,76.4,30.05,SSE,167,0.0,5.0,88,0.02,,---,0.03,VWS V13.01,2013-08-23 13:52:00,
2013-08-23 08:53:00,80.3,76.1,30.05,SSE,167,5.0,5.0,87,0.02,,---,0.03,VWS V13.01,2013-08-23 13:53:00,
2013-08-23 08:54:00,80.3,75.7,30.05,SSE,167,4.0,5.0,86,0.02,,---,0.03,VWS V13.01,2013-08-23 13:54:00,
2013-08-23 08:55:00,80.3,75.7,30.05,SSE,167,0.0,5.0,86,0.02,,---,0.03,VWS V13.01,2013-08-23 13:55:00,
2013-08-23 08:56:00,80.4,75.8,30.05,SSE,167,0.0,5.0,86,0.02,,---,0.03,VWS V13.01,2013-08-23 13:56:00,
2013-08-23 08:57:00,80.4,76.2,30.05,SSE,167,0.0,5.0,87,0.02,,---,0.03,VWS V13.01,2013-08-23 13:57:00,
2013-08-23 08:58:00,80.5,76.3,30.05,SSE,167,0.0,5.0,87,0.02,,---,0.03,VWS V13.01,2013-08-23 13:58:00,
2013-08-23 08:59:00,80.6,76.4,30.05,SSE,167,0.0,5.0,87,0.02,,---,0.03,VWS V13.01,2013-08-23 13:59:00,
2013-08-23 09:00:00,80.6,76.7,30.05,SSE,167,3.0,5.0,88,0.02,,---,0.03,VWS V13.01,2013-08-23 14:00:00,
2013-08-23 09:01:00,80.7,76.1,30.05,SSE,167,0.0,4.0,86,0.02,,---,0.03,VWS V13.01,2013-08-23 14:01:00,
2013-08-23 09:02:00,80.7,76.1,30.05,SSE,167,0.0,4.0,86,0.02,,---,0.03,VWS V13.01,2013-08-23 14:02:00,
2013-08-23 09:03:00,80.8,75.9,30.05,SSE,167,1.0,4.0,85,0.02,,---,0.03,VWS V13.01,2013-08-23 14:03:00,
2013-08-23 09:04:00,80.9,76.3,30.05,SSE,167,0.0,4.0,86,0.02,,---,0.03,VWS V13.01,2013-08-23 14:04:00,
2013-08-23 09:05:00,80.9,76.0,30.05,SSE,167,3.0,5.0,85,0.02,,---,0.03,VWS V13.01,2013-08-23 14:05:00,
2013-08-23 09:06:00,80.9,75.6,30.05,SSE,167,3.0,5.0,84,0.02,,---,0.03,VWS V13.01,2013-08-23 14:06:00,
2013-08-23 09:07:00,81.0,75.7,30.05,SSE,167,4.0,5.0,84,0.02,,---,0.03,VWS V13.01,2013-08-23 14:07:00,
2013-08-23 09:08:00,81.0,75.7,30.05,SSE,167,2.0,5.0,84,0.02,,---,0.03,VWS V13.01,2013-08-23 14:08:00,
2013-08-23 09:09:00,81.1,75.4,30.05,SSE,167,0.0,5.0,83,0.02,,---,0.03,VWS V13.01,2013-08-23 14:09:00,
2013-08-23 09:10:00,81.1,75.8,30.05,SSE,167,0.0,5.0,84,0.02,,---,0.03,VWS V13.01,2013-08-23 14:10:00,
2013-08-23 09:11:00,81.1,76.2,30.05,SSE,167,0.0,5.0,85,0.02,,---,0.03,VWS V13.01,2013-08-23 14:11:00,
2013-08-23 09:12:00,81.2,75.6,30.05,SSE,167,0.0,5.0,83,0.02,,---,0.03,VWS V13.01,2013-08-23 14:12:00,
2013-08-23 09:13:00,81.2,75.6,30.06,SSE,167,0.0,5.0,83,0.02,,---,0.03,VWS V13.01,2013-08-23 14:13:00,
2013-08-23 09:14:00,81.3,75.7,30.05,SSE,167,0.0,5.0,83,0.02,,---,0.03,VWS V13.01,2013-08-23 14:14:00,
2013-08-23 09:15:00,81.4,76.5,30.06,SSE,167,0.0,5.0,85,0.02,,---,0.03,VWS V13.01,2013-08-23 14:15:00,
2013-08-23 09:16:00,81.4,76.1,30.06,SSE,167,2.0,5.0,84,0.02,,---,0.03,VWS V13.01,2013-08-23 14:16:00,
2013-08-23 09:17:00,81.5,76.6,30.06,SSE,167,0.0,5.0,85,0.03,,---,0.04,VWS V13.01,2013-08-23 14:17:00,
2013-08-23 09:18:00,81.6,76.7,30.05,SSE,167,0.0,5.0,85,0.03,,---,0.04,VWS V13.01,2013-08-23 14:18:00,
2013-08-23 09:19:00,81.7,76.8,30.05,SSE,167,3.0,5.0,85,0.03,,---,0.04,VWS V13.01,2013-08-23 14:19:00,
2013-08-23 09:20:00,81.8,76.5,30.05,SSE,167,1.0,5.0,84,0.03,,---,0.04,VWS V13.01,2013-08-23 14:20:00,
2013-08-23 09:21:00,81.8,75.8,30.06,SSE,167,0.0,5.0,82,0.03,,---,0.04,VWS V13.01,2013-08-23 14:21:00,
2013-08-23 09:22:00,81.8,75.8,30.05,SSE,167,0.0,5.0,82,0.03,,---,0.04,VWS V13.01,2013-08-23 14:22:00,
2013-08-23 09:23:00,81.9,75.5,30.05,SSE,167,0.0,5.0,81,0.03,,---,0.04,VWS V13.01,2013-08-23 14:23:00,
2013-08-23 09:24:00,81.9,75.5,30.05,SSE,167,0.0,5.0,81,0.03,,---,0.04,VWS V13.01,2013-08-23 14:24:00,
2013-08-23 09:25:00,81.9,75.5,30.05,SSE,167,0.0,5.0,81,0.03,,---,0.04,VWS V13.01,2013-08-23 14:25:00,
2013-08-23 09:26:00,82.0,76.3,30.05,SSE,167,2.0,5.0,83,0.03,,---,0.04,VWS V13.01,2013-08-23 14:26:00,
2013-08-23 09:27:00,82.0,76.0,30.05,SSE,167,0.0,5.0,82,0.04,,---,0.05,VWS V13.01,2013-08-23 14:27:00,
2013-08-23 09:28:00,82.0,76.0,30.05,SSE,167,0.0,5.0,82,0.04,,---,0.05,VWS V13.01,2013-08-23 14:28:00,
2013-08-23 09:29:00,82.1,76.1,30.05,SSE,167,4.0,5.0,82,0.04,,---,0.05,VWS V13.01,2013-08-23 14:29:00,
2013-08-23 09:30:00,82.1,76.1,30.05,SSE,167,0.0,5.0,82,0.04,,---,0.05,VWS V13.01,2013-08-23 14:30:00,
2013-08-23 09:31:00,82.1,76.4,30.05,SSE,167,0.0,0.0,83,0.04,,---,0.05,VWS V13.01,2013-08-23 14:31:00,
2013-08-23 09:32:00,82.2,76.2,30.05,SSE,167,3.0,4.0,82,0.04,,---,0.05,VWS V13.01,2013-08-23 14:32:00,
2013-08-23 09:33:00,82.2,76.2,30.06,SSE,167,0.0,4.0,82,0.04,,---,0.05,VWS V13.01,2013-08-23 14:33:00,
2013-08-23 09:34:00,82.3,76.6,30.06,SSE,167,3.0,4.0,83,0.04,,---,0.05,VWS V13.01,2013-08-23 14:34:00,
2013-08-23 09:35:00,82.4,76.4,30.05,SSE,167,0.0,4.0,82,0.04,,---,0.05,VWS V13.01,2013-08-23 14:35:00,
2013-08-23 09:36:00,82.4,76.0,30.05,SSE,167,3.0,4.0,81,0.04,,---,0.05,VWS V13.01,2013-08-23 14:36:00,
2013-08-23 09:37:00,82.4,75.6,30.05,SSE,167,0.0,4.0,80,0.04,,---,0.05,VWS V13.01,2013-08-23 14:37:00,
2013-08-23 09:38:00,82.5,75.7,30.05,SSE,167,0.0,4.0,80,0.04,,---,0.05,VWS V13.01,2013-08-23 14:38:00,
2013-08-23 09:39:00,82.5,75.7,30.05,SSE,167,0.0,4.0,80,0.04,,---,0.05,VWS V13.01,2013-08-23 14:39:00,
2013-08-23 09:40:00,82.6,76.2,30.05,SSE,167,1.0,4.0,81,0.04,,---,0.05,VWS V13.01,2013-08-23 14:40:00,
2013-08-23 09:41:00,82.6,75.8,30.05,SSE,167,0.0,4.0,80,0.04,,---,0.05,VWS V13.01,2013-08-23 14:41:00,
2013-08-23 09:42:00,82.6,75.4,30.05,SSE,167,0.0,4.0,79,0.04,,---,0.05,VWS V13.01,2013-08-23 14:42:00,
2013-08-23 09:43:00,82.7,75.9,30.05,SSE,167,3.0,4.0,80,0.04,,---,0.05,VWS V13.01,2013-08-23 14:43:00,
2013-08-23 09:44:00,82.7,75.5,30.05,SSE,167,4.0,4.0,79,0.04,,---,0.05,VWS V13.01,2013-08-23 14:44:00,
2013-08-23 09:45:00,82.7,75.5,30.05,SSE,167,2.0,4.0,79,0.05,,---,0.06,VWS V13.01,2013-08-23 14:45:00,
2013-08-23 09:46:00,82.7,75.5,30.05,SSE,167,5.0,5.0,79,0.05,,---,0.06,VWS V13.01,2013-08-23 14:46:00,
2013-08-23 09:47:00,82.7,74.8,30.05,SSE,167,3.0,5.0,77,0.05,,---,0.06,VWS V13.01,2013-08-23 14:47:00,
2013-08-23 09:48:00,82.7,74.8,30.05,SSE,167,2.0,5.0,77,0.05,,---,0.06,VWS V13.01,2013-08-23 14:48:00,
2013-08-23 09:49:00,82.7,75.2,30.05,SSE,167,3.0,5.0,78,0.05,,---,0.06,VWS V13.01,2013-08-23 14:49:00,
2013-08-23 09:50:00,82.7,75.2,30.05,SSE,167,3.0,5.0,78,0.05,,---,0.06,VWS V13.01,2013-08-23 14:50:00,
2013-08-23 09:51:00,82.7,75.2,30.06,SSE,167,4.0,5.0,78,0.05,,---,0.06,VWS V13.01,2013-08-23 14:51:00,
2013-08-23 09:52:00,82.7,75.5,30.06,SSE,167,1.0,5.0,79,0.05,,---,0.06,VWS V13.01,2013-08-23 14:52:00,
2013-08-23 09:53:00,82.8,76.0,30.05,SSE,167,0.0,5.0,80,0.05,,---,0.06,VWS V13.01,2013-08-23 14:53:00,
2013-08-23 09:54:00,82.9,76.5,30.05,SSE,167,0.0,5.0,81,0.05,,---,0.06,VWS V13.01,2013-08-23 14:54:00,
2013-08-23 09:55:00,82.9,76.5,30.05,SSE,167,0.0,5.0,81,0.05,,---,0.06,VWS V13.01,2013-08-23 14:55:00,
2013-08-23 09:56:00,83.0,76.6,30.06,SSE,167,0.0,5.0,81,0.05,,---,0.06,VWS V13.01,2013-08-23 14:56:00,
2013-08-23 09:57:00,83.0,75.4,30.05,SSE,167,2.0,5.0,78,0.05,,---,0.06,VWS V13.01,2013-08-23 14:57:00,
2013-08-23 09:58:00,83.0,75.1,30.05,SSE,167,0.0,5.0,77,0.06,,---,0.07,VWS V13.01,2013-08-23 14:58:00,
2013-08-23 09:59:00,83.0,75.4,30.05,SSE,167,0.0,5.0,78,0.06,,---,0.07,VWS V13.01,2013-08-23 14:59:00,
2013-08-23 10:00:00,83.1,75.9,30.05,SSE,167,0.0,5.0,79,0.06,,---,0.07,VWS V13.01,2013-08-23 15:00:00,
2013-08-23 10:01:00,83.2,76.4,30.05,SSE,167,0.0,0.0,80,0.04,,---,0.07,VWS V13.01,2013-08-23 15:01:00,
2013-08-23 10:02:00,83.2,76.8,30.05,SSE,167,0.0,0.0,81,0.04,,---,0.07,VWS V13.01,2013-08-23 15:02:00,
2013-08-23 10:03:00,83.3,76.9,30.06,SSE,167,1.0,1.0,81,0.04,,---,0.07,VWS V13.01,2013-08-23 15:03:00,
2013-08-23 10:04:00,83.3,75.7,30.06,SSE,167,0.0,6.0,78,0.04,,---,0.07,VWS V13.01,2013-08-23 15:04:00,
2013-08-23 10:05:00,83.4,75.8,30.06,SSE,167,3.0,6.0,78,0.04,,---,0.07,VWS V13.01,2013-08-23 15:05:00,
2013-08-23 10:06:00,83.4,75.4,30.06,SSE,167,0.0,6.0,77,0.04,,---,0.07,VWS V13.01,2013-08-23 15:06:00,
2013-08-23 10:07:00,83.4,75.8,30.06,SSE,167,0.0,6.0,78,0.04,,---,0.07,VWS V13.01,2013-08-23 15:07:00,
2013-08-23 10:08:00,83.4,75.8,30.06,SSE,167,0.0,6.0,78,0.04,,---,0.07,VWS V13.01,2013-08-23 15:08:00,
2013-08-23 10:09:00,83.5,75.9,30.06,SSE,167,1.0,6.0,78,0.04,,---,0.07,VWS V13.01,2013-08-23 15:09:00,
2013-08-23 10:10:00,83.5,75.9,30.05,SSE,167,0.0,6.0,78,0.04,,---,0.07,VWS V13.01,2013-08-23 15:10:00,
2013-08-23 10:11:00,83.6,75.6,30.05,SSE,167,0.0,6.0,77,0.04,,---,0.07,VWS V13.01,2013-08-23 15:11:00,
2013-08-23 10:12:00,83.6,76.0,30.05,SSE,167,0.0,6.0,78,0.04,,---,0.07,VWS V13.01,2013-08-23 15:12:00,
2013-08-23 10:13:00,83.6,75.6,30.05,SSE,167,0.0,6.0,77,0.04,,---,0.07,VWS V13.01,2013-08-23 15:13:00,
2013-08-23 10:14:00,83.6,76.0,30.05,SSE,167,1.0,6.0,78,0.04,,---,0.07,VWS V13.01,2013-08-23 15:14:00,
2013-08-23 10:15:00,83.7,76.1,30.05,SSE,167,0.0,6.0,78,0.04,,---,0.07,VWS V13.01,2013-08-23 15:15:00,
2013-08-23 10:16:00,83.7,76.1,30.05,SSE,167,0.0,6.0,78,0.04,,---,0.07,VWS V13.01,2013-08-23 15:16:00,
2013-08-23 10:17:00,83.8,76.2,30.05,SSE,167,0.0,6.0,78,0.04,,---,0.07,VWS V13.01,2013-08-23 15:17:00,
2013-08-23 10:18:00,83.8,76.6,30.05,SSE,167,0.0,6.0,79,0.04,,---,0.07,VWS V13.01,2013-08-23 15:18:00,
2013-08-23 10:19:00,83.9,76.3,30.05,SSE,167,4.0,6.0,78,0.04,,---,0.07,VWS V13.01,2013-08-23 15:19:00,
2013-08-23 10:20:00,83.9,76.3,30.05,SSE,167,0.0,6.0,78,0.04,,---,0.07,VWS V13.01,2013-08-23 15:20:00,
2013-08-23 10:21:00,84.0,76.8,30.05,SSE,167,0.0,6.0,79,0.04,,---,0.07,VWS V13.01,2013-08-23 15:21:00,
2013-08-23 10:22:00,84.1,77.3,30.05,SSE,167,0.0,6.0,80,0.04,,---,0.07,VWS V13.01,2013-08-23 15:22:00,
2013-08-23 10:23:00,84.2,77.0,30.05,SSE,167,0.0,6.0,79,0.04,,---,0.07,VWS V13.01,2013-08-23 15:23:00,
2013-08-23 10:24:00,84.3,77.1,30.05,SSE,167,1.0,6.0,79,0.04,,---,0.07,VWS V13.01,2013-08-23 15:24:00,
2013-08-23 10:25:00,84.3,77.1,30.05,SSE,167,0.0,6.0,79,0.04,,---,0.07,VWS V13.01,2013-08-23 15:25:00,
2013-08-23 10:26:00,84.4,77.6,30.05,SSE,167,4.0,6.0,80,0.04,,---,0.07,VWS V13.01,2013-08-23 15:26:00,
2013-08-23 10:27:00,84.5,76.5,30.05,SSE,167,0.0,6.0,77,0.04,,---,0.07,VWS V13.01,2013-08-23 15:27:00,
2013-08-23 10:28:00,84.5,76.5,30.05,SSE,167,0.0,6.0,77,0.04,,---,0.07,VWS V13.01,2013-08-23 15:28:00,
2013-08-23 10:29:00,84.5,76.1,30.05,SSE,167,4.0,6.0,76,0.04,,---,0.07,VWS V13.01,2013-08-23 15:29:00,
2013-08-23 10:30:00,84.5,76.5,30.05,SSE,167,0.0,6.0,77,0.04,,---,0.07,VWS V13.01,2013-08-23 15:30:00,
2013-08-23 10:31:00,84.5,76.1,30.05,SSE,167,2.0,3.0,76,0.02,,---,0.07,VWS V13.01,2013-08-23 15:31:00,
2013-08-23 10:32:00,84.5,76.5,30.05,SSE,167,2.0,4.0,77,0.02,,---,0.07,VWS V13.01,2013-08-23 15:32:00,
2013-08-23 10:33:00,84.5,76.5,30.05,SSE,167,0.0,4.0,77,0.02,,---,0.07,VWS V13.01,2013-08-23 15:33:00,
2013-08-23 10:34:00,84.5,76.5,30.05,SSE,167,0.0,4.0,77,0.02,,---,0.07,VWS V13.01,2013-08-23 15:34:00,
2013-08-23 10:35:00,84.6,76.6,30.05,SSE,167,0.0,4.0,77,0.02,,---,0.07,VWS V13.01,2013-08-23 15:35:00,
2013-08-23 10:36:00,84.6,76.6,30.04,SSE,167,0.0,4.0,77,0.02,,---,0.07,VWS V13.01,2013-08-23 15:36:00,
2013-08-23 10:37:00,84.6,76.2,30.04,SSE,167,0.0,4.0,76,0.02,,---,0.07,VWS V13.01,2013-08-23 15:37:00,
2013-08-23 10:38:00,84.6,76.6,30.04,SSE,167,0.0,4.0,77,0.02,,---,0.07,VWS V13.01,2013-08-23 15:38:00,
2013-08-23 10:39:00,84.7,76.7,30.04,SSE,167,0.0,4.0,77,0.02,,---,0.07,VWS V13.01,2013-08-23 15:39:00,
2013-08-23 10:40:00,84.7,76.7,30.05,SSE,167,0.0,4.0,77,0.02,,---,0.07,VWS V13.01,2013-08-23 15:40:00,
2013-08-23 10:41:00,84.7,76.7,30.05,SSE,167,0.0,4.0,77,0.02,,---,0.07,VWS V13.01,2013-08-23 15:41:00,
2013-08-23 10:42:00,84.7,77.1,30.04,SSE,167,3.0,4.0,78,0.02,,---,0.07,VWS V13.01,2013-08-23 15:42:00,
2013-08-23 10:43:00,84.7,76.7,30.04,SSE,167,0.0,4.0,77,0.02,,---,0.07,VWS V13.01,2013-08-23 15:43:00,
2013-08-23 10:44:00,84.8,77.2,30.04,SSE,167,0.0,4.0,78,0.02,,---,0.07,VWS V13.01,2013-08-23 15:44:00,
2013-08-23 10:45:00,84.8,76.8,30.05,SSE,167,0.0,4.0,77,0.02,,---,0.07,VWS V13.01,2013-08-23 15:45:00,
2013-08-23 10:46:00,84.8,76.8,30.05,SSE,167,0.0,4.0,77,0.02,,---,0.07,VWS V13.01,2013-08-23 15:46:00,
2013-08-23 10:47:00,84.8,76.4,30.05,SSE,167,5.0,6.0,76,0.02,,---,0.07,VWS V13.01,2013-08-23 15:47:00,
2013-08-23 10:48:00,84.8,76.4,30.04,SSE,167,0.0,6.0,76,0.02,,---,0.07,VWS V13.01,2013-08-23 15:48:00,
2013-08-23 10:49:00,84.8,76.4,30.04,SSE,167,0.0,6.0,76,0.02,,---,0.07,VWS V13.01,2013-08-23 15:49:00,
2013-08-23 10:50:00,84.8,76.8,30.04,SSE,167,0.0,6.0,77,0.02,,---,0.07,VWS V13.01,2013-08-23 15:50:00,
2013-08-23 10:51:00,84.8,76.4,30.04,SSE,167,0.0,6.0,76,0.02,,---,0.07,VWS V13.01,2013-08-23 15:51:00,
2013-08-23 10:52:00,84.7,76.7,30.04,SSE,167,2.0,6.0,77,0.02,,---,0.07,VWS V13.01,2013-08-23 15:52:00,
2013-08-23 10:53:00,84.7,76.7,30.04,SSE,167,1.0,6.0,77,0.02,,---,0.07,VWS V13.01,2013-08-23 15:53:00,
2013-08-23 10:54:00,84.7,76.3,30.04,SSE,167,0.0,6.0,76,0.02,,---,0.07,VWS V13.01,2013-08-23 15:54:00,
2013-08-23 10:55:00,84.7,76.7,30.04,SSE,167,0.0,6.0,77,0.02,,---,0.07,VWS V13.01,2013-08-23 15:55:00,
2013-08-23 10:56:00,84.7,76.3,30.04,SSE,167,0.0,6.0,76,0.02,,---,0.07,VWS V13.01,2013-08-23 15:56:00,
2013-08-23 10:57:00,84.7,76.3,30.04,SSE,167,0.0,6.0,76,0.02,,---,0.07,VWS V13.01,2013-08-23 15:57:00,
2013-08-23 10:58:00,84.7,75.9,30.04,SSE,167,0.0,6.0,75,0.03,,---,0.08,VWS V13.01,2013-08-23 15:58:00,
2013-08-23 10:59:00,84.7,76.3,30.04,SSE,167,0.0,6.0,76,0.03,,---,0.08,VWS V13.01,2013-08-23 15:59:00,
2013-08-23 11:00:00,84.7,77.1,30.04,SSE,167,0.0,6.0,78,0.03,,---,0.08,VWS V13.01,2013-08-23 16:00:00,
2013-08-23 11:01:00,84.7,76.7,30.04,SSE,167,0.0,0.0,77,0.03,,---,0.08,VWS V13.01,2013-08-23 16:01:00,
2013-08-23 11:02:00,84.7,76.3,30.04,SSE,167,0.0,1.0,76,0.01,,---,0.08,VWS V13.01,2013-08-23 16:02:00,
2013-08-23 11:03:00,84.7,75.9,30.04,SSE,167,0.0,1.0,75,0.01,,---,0.08,VWS V13.01,2013-08-23 16:03:00,
2013-08-23 11:04:00,84.7,76.3,30.04,SSE,167,0.0,1.0,76,0.01,,---,0.08,VWS V13.01,2013-08-23 16:04:00,
2013-08-23 11:05:00,84.6,75.8,30.04,SSE,167,0.0,1.0,75,0.01,,---,0.08,VWS V13.01,2013-08-23 16:05:00,
2013-08-23 11:06:00,84.7,75.9,30.04,SSE,167,0.0,1.0,75,0.01,,---,0.08,VWS V13.01,2013-08-23 16:06:00,
2013-08-23 11:07:00,84.6,75.8,30.04,SSE,167,0.0,1.0,75,0.01,,---,0.08,VWS V13.01,2013-08-23 16:07:00,
2013-08-23 11:08:00,84.6,75.4,30.04,SSE,167,0.0,1.0,74,0.01,,---,0.08,VWS V13.01,2013-08-23 16:08:00,
2013-08-23 11:09:00,84.6,75.4,30.04,SSE,167,0.0,1.0,74,0.01,,---,0.08,VWS V13.01,2013-08-23 16:09:00,
2013-08-23 11:10:00,84.6,75.4,30.04,SSE,167,0.0,1.0,74,0.01,,---,0.08,VWS V13.01,2013-08-23 16:10:00,
2013-08-23 11:11:00,84.6,75.8,30.04,SSE,167,0.0,1.0,75,0.01,,---,0.08,VWS V13.01,2013-08-23 16:11:00,
2013-08-23 11:12:00,84.6,75.8,30.04,SSE,167,0.0,1.0,75,0.01,,---,0.08,VWS V13.01,2013-08-23 16:12:00,
2013-08-23 11:13:00,84.6,75.8,30.04,SSE,167,0.0,1.0,75,0.01,,---,0.08,VWS V13.01,2013-08-23 16:13:00,
2013-08-23 11:14:00,84.7,75.9,30.04,SSE,167,0.0,1.0,75,0.01,,---,0.08,VWS V13.01,2013-08-23 16:14:00,
2013-08-23 11:15:00,84.7,75.9,30.04,SSE,167,0.0,1.0,75,0.01,,---,0.08,VWS V13.01,2013-08-23 16:15:00,
2013-08-23 11:16:00,84.7,75.9,30.04,SSE,167,0.0,1.0,75,0.01,,---,0.08,VWS V13.01,2013-08-23 16:16:00,
2013-08-23 11:17:00,84.8,75.6,30.04,SSE,167,0.0,1.0,74,0.01,,---,0.08,VWS V13.01,2013-08-23 16:17:00,
2013-08-23 11:18:00,84.8,75.6,30.04,SSE,167,0.0,1.0,74,0.01,,---,0.08,VWS V13.01,2013-08-23 16:18:00,
2013-08-23 11:19:00,84.8,75.2,30.04,SSE,167,0.0,1.0,73,0.01,,---,0.08,VWS V13.01,2013-08-23 16:19:00,
2013-08-23 11:20:00,84.9,76.5,30.04,SSE,167,0.0,1.0,76,0.01,,---,0.08,VWS V13.01,2013-08-23 16:20:00,
2013-08-23 11:21:00,85.0,76.6,30.04,SSE,167,0.0,2.0,76,0.01,,---,0.08,VWS V13.01,2013-08-23 16:21:00,
2013-08-23 11:22:00,85.1,76.7,30.04,SSE,167,0.0,2.0,76,0.01,,---,0.08,VWS V13.01,2013-08-23 16:22:00,
2013-08-23 11:23:00,85.1,76.3,30.04,SSE,167,0.0,2.0,75,0.01,,---,0.08,VWS V13.01,2013-08-23 16:23:00,
2013-08-23 11:24:00,85.2,77.2,30.04,SSE,167,0.0,2.0,77,0.01,,---,0.08,VWS V13.01,2013-08-23 16:24:00,
2013-08-23 11:25:00,85.3,76.9,30.04,SSE,167,0.0,2.0,76,0.01,,---,0.08,VWS V13.01,2013-08-23 16:25:00,
2013-08-23 11:26:00,85.3,76.1,30.04,SSE,167,0.0,2.0,74,0.01,,---,0.08,VWS V13.01,2013-08-23 16:26:00,
2013-08-23 11:27:00,85.4,77.0,30.04,SSE,167,0.0,2.0,76,0.01,,---,0.08,VWS V13.01,2013-08-23 16:27:00,
2013-08-23 11:28:00,85.5,76.7,30.04,SSE,167,0.0,2.0,75,0.01,,---,0.08,VWS V13.01,2013-08-23 16:28:00,
2013-08-23 11:29:00,85.6,76.0,30.04,SSE,167,3.0,3.0,73,0.01,,---,0.08,VWS V13.01,2013-08-23 16:29:00,
2013-08-23 11:30:00,85.7,76.1,30.04,SSE,167,2.0,3.0,73,0.01,,---,0.08,VWS V13.01,2013-08-23 16:30:00,
2013-08-23 11:31:00,85.7,76.5,30.04,SSE,167,4.0,5.0,74,0.01,,---,0.08,VWS V13.01,2013-08-23 16:31:00,
2013-08-23 11:32:00,85.7,76.1,30.04,SSE,167,1.0,5.0,73,0.01,,---,0.08,VWS V13.01,2013-08-23 16:32:00,
2013-08-23 11:33:00,85.8,75.7,30.04,SSE,167,1.0,5.0,72,0.01,,---,0.08,VWS V13.01,2013-08-23 16:33:00,
2013-08-23 11:34:00,85.8,75.7,30.04,SSE,167,0.0,5.0,72,0.01,,---,0.08,VWS V13.01,2013-08-23 16:34:00,
2013-08-23 11:35:00,85.7,75.6,30.04,SSE,167,0.0,5.0,72,0.01,,---,0.08,VWS V13.01,2013-08-23 16:35:00,
2013-08-23 11:36:00,85.8,75.3,30.04,SSE,167,0.0,5.0,71,0.01,,---,0.08,VWS V13.01,2013-08-23 16:36:00,
2013-08-23 11:37:00,85.8,75.7,30.04,SSE,167,0.0,5.0,72,0.01,,---,0.08,VWS V13.01,2013-08-23 16:37:00,
2013-08-23 11:38:00,85.8,75.7,30.03,SSE,167,0.0,5.0,72,0.01,,---,0.08,VWS V13.01,2013-08-23 16:38:00,
2013-08-23 11:39:00,85.9,77.1,30.03,SSE,167,0.0,5.0,75,0.01,,---,0.08,VWS V13.01,2013-08-23 16:39:00,
2013-08-23 11:40:00,86.0,77.6,30.04,SSE,167,2.0,5.0,76,0.01,,---,0.08,VWS V13.01,2013-08-23 16:40:00,
2013-08-23 11:41:00,86.0,75.5,30.04,SSE,167,0.0,5.0,71,0.01,,---,0.08,VWS V13.01,2013-08-23 16:41:00,
2013-08-23 11:42:00,86.0,75.9,30.04,SSE,167,0.0,5.0,72,0.01,,---,0.08,VWS V13.01,2013-08-23 16:42:00,
2013-08-23 11:43:00,86.1,76.4,30.04,SSE,167,2.0,5.0,73,0.01,,---,0.08,VWS V13.01,2013-08-23 16:43:00,
2013-08-23 11:44:00,86.1,75.6,30.04,SSE,167,1.0,5.0,71,0.01,,---,0.08,VWS V13.01,2013-08-23 16:44:00,
2013-08-23 11:45:00,86.1,75.2,30.04,SSE,167,0.0,5.0,70,0.01,,---,0.08,VWS V13.01,2013-08-23 16:45:00,
2013-08-23 11:46:00,86.1,75.2,30.04,SSE,167,2.0,5.0,70,0.01,,---,0.08,VWS V13.01,2013-08-23 16:46:00,
2013-08-23 11:47:00,86.2,76.9,30.04,SSE,167,0.0,5.0,74,0.01,,---,0.08,VWS V13.01,2013-08-23 16:47:00,
2013-08-23 11:48:00,86.2,75.7,30.03,SSE,167,0.0,5.0,71,0.01,,---,0.08,VWS V13.01,2013-08-23 16:48:00,
2013-08-23 11:49:00,86.3,77.0,30.03,SSE,167,0.0,5.0,74,0.01,,---,0.08,VWS V13.01,2013-08-23 16:49:00,
2013-08-23 11:50:00,86.3,75.8,30.03,SSE,167,0.0,5.0,71,0.01,,---,0.08,VWS V13.01,2013-08-23 16:50:00,
2013-08-23 11:51:00,86.4,76.3,30.03,SSE,167,1.0,5.0,72,0.01,,---,0.08,VWS V13.01,2013-08-23 16:51:00,
2013-08-23 11:52:00,86.4,77.5,30.03,SSE,167,0.0,5.0,75,0.01,,---,0.08,VWS V13.01,2013-08-23 16:52:00,
2013-08-23 11:53:00,86.5,77.6,30.03,SSE,167,3.0,5.0,75,0.01,,---,0.08,VWS V13.01,2013-08-23 16:53:00,
2013-08-23 11:54:00,86.5,76.0,30.03,SSE,167,3.0,5.0,71,0.01,,---,0.08,VWS V13.01,2013-08-23 16:54:00,
2013-08-23 11:55:00,86.5,75.1,30.03,SSE,167,0.0,5.0,69,0.01,,---,0.08,VWS V13.01,2013-08-23 16:55:00,
2013-08-23 11:56:00,86.5,74.7,30.03,SSE,167,0.0,5.0,68,0.01,,---,0.08,VWS V13.01,2013-08-23 16:56:00,
2013-08-23 11:57:00,86.5,75.6,30.03,SSE,167,0.0,5.0,70,0.01,,---,0.08,VWS V13.01,2013-08-23 16:57:00,
2013-08-23 11:58:00,86.5,76.4,30.03,SSE,167,0.0,5.0,72,0.01,,---,0.08,VWS V13.01,2013-08-23 16:58:00,
2013-08-23 11:59:00,86.6,76.5,30.03,SSE,167,0.0,5.0,72,0.01,,---,0.08,VWS V13.01,2013-08-23 16:59:00,
2013-08-23 12:00:00,86.6,76.1,30.03,SSE,167,0.0,5.0,71,0.01,,---,0.08,VWS V13.01,2013-08-23 17:00:00,
2013-08-23 12:01:00,86.6,77.3,30.03,SSE,167,0.0,1.0,74,0.00,,---,0.08,VWS V13.01,2013-08-23 17:01:00,
2013-08-23 12:02:00,86.7,76.2,30.03,SSE,167,0.0,1.0,71,0.00,,---,0.08,VWS V13.01,2013-08-23 17:02:00,
2013-08-23 12:03:00,86.7,76.2,30.03,SSE,167,1.0,2.0,71,0.00,,---,0.08,VWS V13.01,2013-08-23 17:03:00,
2013-08-23 12:04:00,86.8,76.3,30.03,SSE,167,0.0,2.0,71,0.00,,---,0.08,VWS V13.01,2013-08-23 17:04:00,
2013-08-23 12:05:00,86.9,76.4,30.03,SSE,167,4.0,4.0,71,0.00,,---,0.08,VWS V13.01,2013-08-23 17:05:00,
2013-08-23 12:06:00,86.9,76.8,30.03,SSE,167,2.0,4.0,72,0.00,,---,0.08,VWS V13.01,2013-08-23 17:06:00,
2013-08-23 12:07:00,87.0,76.9,30.03,SSE,167,0.0,4.0,72,0.00,,---,0.08,VWS V13.01,2013-08-23 17:07:00,
2013-08-23 12:08:00,87.1,76.1,30.03,SSE,167,0.0,4.0,70,0.00,,---,0.08,VWS V13.01,2013-08-23 17:08:00,
2013-08-23 12:09:00,87.1,77.4,30.03,SSE,167,2.0,4.0,73,0.00,,---,0.08,VWS V13.01,2013-08-23 17:09:00,
2013-08-23 12:10:00,87.1,75.3,30.03,SSE,167,2.0,4.0,68,0.00,,---,0.08,VWS V13.01,2013-08-23 17:10:00,
2013-08-23 12:11:00,87.1,76.1,30.03,SSE,167,0.0,4.0,70,0.00,,---,0.08,VWS V13.01,2013-08-23 17:11:00,
2013-08-23 12:12:00,87.1,76.1,30.03,SSE,167,0.0,4.0,70,0.00,,---,0.08,VWS V13.01,2013-08-23 17:12:00,
2013-08-23 12:13:00,87.2,76.7,30.03,SSE,167,0.0,4.0,71,0.00,,---,0.08,VWS V13.01,2013-08-23 17:13:00,
2013-08-23 12:14:00,87.3,76.3,30.03,SSE,167,0.0,4.0,70,0.00,,---,0.08,VWS V13.01,2013-08-23 17:14:00,
2013-08-23 12:15:00,87.3,75.9,30.03,SSE,167,0.0,4.0,69,0.00,,---,0.08,VWS V13.01,2013-08-23 17:15:00,
2013-08-23 12:16:00,87.4,76.4,30.03,SSE,167,1.0,4.0,70,0.00,,---,0.08,VWS V13.01,2013-08-23 17:16:00,
2013-08-23 12:17:00,87.4,76.4,30.03,SSE,167,0.0,4.0,70,0.00,,---,0.08,VWS V13.01,2013-08-23 17:17:00,
2013-08-23 12:18:00,87.5,76.9,30.03,SSE,167,0.0,4.0,71,0.00,,---,0.08,VWS V13.01,2013-08-23 17:18:00,
2013-08-23 12:19:00,87.5,76.5,30.03,SSE,167,0.0,4.0,70,0.00,,---,0.08,VWS V13.01,2013-08-23 17:19:00,
2013-08-23 12:20:00,87.6,76.6,30.03,SSE,167,0.0,4.0,70,0.00,,---,0.08,VWS V13.01,2013-08-23 17:20:00,
2013-08-23 12:21:00,87.7,77.1,30.03,SSE,167,0.0,4.0,71,0.00,,---,0.08,VWS V13.01,2013-08-23 17:21:00,
2013-08-23 12:22:00,87.7,76.7,30.03,SSE,167,4.0,4.0,70,0.00,,---,0.08,VWS V13.01,2013-08-23 17:22:00,
2013-08-23 12:23:00,87.6,76.2,30.03,SSE,167,0.0,4.0,69,0.00,,---,0.08,VWS V13.01,2013-08-23 17:23:00,
2013-08-23 12:24:00,87.6,76.2,30.02,SSE,167,0.0,4.0,69,0.00,,---,0.08,VWS V13.01,2013-08-23 17:24:00,
2013-08-23 12:25:00,87.6,77.0,30.03,SSE,167,0.0,4.0,71,0.00,,---,0.08,VWS V13.01,2013-08-23 17:25:00,
2013-08-23 12:26:00,87.5,76.5,30.02,SSE,167,0.0,4.0,70,0.00,,---,0.08,VWS V13.01,2013-08-23 17:26:00,
2013-08-23 12:27:00,87.5,76.1,30.02,SSE,167,0.0,4.0,69,0.00,,---,0.08,VWS V13.01,2013-08-23 17:27:00,
2013-08-23 12:28:00,87.5,75.6,30.03,SSE,167,0.0,4.0,68,0.00,,---,0.08,VWS V13.01,2013-08-23 17:28:00,
2013-08-23 12:29:00,87.5,76.5,30.02,SSE,167,0.0,4.0,70,0.00,,---,0.08,VWS V13.01,2013-08-23 17:29:00,
2013-08-23 12:30:00,87.6,76.6,30.02,SSE,167,0.0,4.0,70,0.00,,---,0.08,VWS V13.01,2013-08-23 17:30:00,
2013-08-23 12:31:00,87.6,76.2,30.02,SSE,167,3.0,4.0,69,0.00,,---,0.08,VWS V13.01,2013-08-23 17:31:00,
2013-08-23 12:32:00,87.7,76.3,30.02,SSE,167,0.0,4.0,69,0.00,,---,0.08,VWS V13.01,2013-08-23 17:32:00,
2013-08-23 12:33:00,87.7,75.8,30.02,SSE,167,0.0,4.0,68,0.00,,---,0.08,VWS V13.01,2013-08-23 17:33:00,
2013-08-23 12:34:00,87.7,75.4,30.02,SSE,167,0.0,4.0,67,0.00,,---,0.08,VWS V13.01,2013-08-23 17:34:00,
2013-08-23 12:35:00,87.7,77.1,30.02,SSE,167,0.0,4.0,71,0.00,,---,0.09,VWS V13.01,2013-08-23 17:35:00,
2013-08-23 12:36:00,87.7,77.1,30.02,SSE,167,0.0,4.0,71,0.01,,---,0.09,VWS V13.01,2013-08-23 17:36:00,
2013-08-23 12:37:00,87.7,76.7,30.02,SSE,167,0.0,4.0,70,0.01,,---,0.09,VWS V13.01,2013-08-23 17:37:00,
2013-08-23 12:38:00,87.6,76.6,30.02,SSE,167,0.0,4.0,70,0.01,,---,0.09,VWS V13.01,2013-08-23 17:38:00,
2013-08-23 12:39:00,87.6,77.0,30.02,SSE,167,0.0,4.0,71,0.01,,---,0.09,VWS V13.01,2013-08-23 17:39:00,
2013-08-23 12:40:00,87.6,77.9,30.02,SSE,167,0.0,4.0,73,0.01,,---,0.09,VWS V13.01,2013-08-23 17:40:00,
2013-08-23 12:41:00,87.6,78.3,30.02,SSE,167,1.0,4.0,74,0.01,,---,0.09,VWS V13.01,2013-08-23 17:41:00,
2013-08-23 12:42:00,87.7,77.6,30.02,SSE,167,0.0,4.0,72,0.01,,---,0.09,VWS V13.01,2013-08-23 17:42:00,
2013-08-23 12:43:00,87.7,78.0,30.02,SSE,167,0.0,4.0,73,0.01,,---,0.09,VWS V13.01,2013-08-23 17:43:00,
2013-08-23 12:44:00,87.7,77.6,30.02,SSE,167,0.0,4.0,72,0.01,,---,0.09,VWS V13.01,2013-08-23 17:44:00,
2013-08-23 12:45:00,87.7,77.1,30.02,SSE,167,0.0,4.0,71,0.01,,---,0.09,VWS V13.01,2013-08-23 17:45:00,
2013-08-23 12:46:00,87.7,77.1,30.02,SSE,167,0.0,4.0,71,0.01,,---,0.09,VWS V13.01,2013-08-23 17:46:00,
2013-08-23 12:47:00,87.7,76.3,30.02,SSE,167,0.0,4.0,69,0.01,,---,0.09,VWS V13.01,2013-08-23 17:47:00,
2013-08-23 12:48:00,87.7,77.1,30.02,SSE,167,0.0,4.0,71,0.01,,---,0.09,VWS V13.01,2013-08-23 17:48:00,
2013-08-23 12:49:00,87.7,75.8,30.02,SSE,167,0.0,4.0,68,0.01,,---,0.09,VWS V13.01,2013-08-23 17:49:00,
2013-08-23 12:50:00,87.7,76.3,30.02,SSE,167,0.0,4.0,69,0.01,,---,0.09,VWS V13.01,2013-08-23 17:50:00,
2013-08-23 12:51:00,87.7,76.7,30.02,SSE,167,0.0,4.0,70,0.01,,---,0.09,VWS V13.01,2013-08-23 17:51:00,
2013-08-23 12:52:00,87.8,75.5,30.02,SSE,167,0.0,4.0,67,0.01,,---,0.09,VWS V13.01,2013-08-23 17:52:00,
2013-08-23 12:53:00,87.8,75.9,30.02,SSE,167,0.0,4.0,68,0.01,,---,0.09,VWS V13.01,2013-08-23 17:53:00,
2013-08-23 12:54:00,87.9,76.9,30.02,SSE,167,0.0,4.0,70,0.01,,---,0.09,VWS V13.01,2013-08-23 17:54:00,
2013-08-23 12:55:00,87.9,77.3,30.01,SSE,167,0.0,4.0,71,0.01,,---,0.09,VWS V13.01,2013-08-23 17:55:00,
2013-08-23 12:56:00,88.0,77.0,30.02,SSE,167,0.0,4.0,70,0.01,,---,0.09,VWS V13.01,2013-08-23 17:56:00,
2013-08-23 12:57:00,87.9,76.5,30.02,SSE,167,0.0,4.0,69,0.01,,---,0.09,VWS V13.01,2013-08-23 17:57:00,
2013-08-23 12:58:00,87.9,76.0,30.02,SSE,167,1.0,4.0,68,0.01,,---,0.09,VWS V13.01,2013-08-23 17:58:00,
2013-08-23 12:59:00,87.8,75.9,30.01,SSE,167,3.0,4.0,68,0.01,,---,0.09,VWS V13.01,2013-08-23 17:59:00,
2013-08-23 13:00:00,87.7,75.8,30.01,SSE,167,0.0,4.0,68,0.01,,---,0.09,VWS V13.01,2013-08-23 18:00:00,
2013-08-23 13:01:00,87.6,74.8,30.01,SSE,167,0.0,2.0,66,0.01,,---,0.09,VWS V13.01,2013-08-23 18:01:00,
2013-08-23 13:02:00,87.5,74.8,30.01,SSE,167,0.0,2.0,66,0.01,,---,0.09,VWS V13.01,2013-08-23 18:02:00,
2013-08-23 13:03:00,87.4,75.1,30.01,SSE,167,0.0,2.0,67,0.01,,---,0.09,VWS V13.01,2013-08-23 18:03:00,
2013-08-23 13:04:00,87.4,74.7,30.01,SSE,167,0.0,2.0,66,0.01,,---,0.09,VWS V13.01,2013-08-23 18:04:00,
2013-08-23 13:05:00,87.3,75.0,30.01,SSE,167,0.0,2.0,67,0.01,,---,0.09,VWS V13.01,2013-08-23 18:05:00,
2013-08-23 13:06:00,87.3,75.9,30.01,SSE,167,0.0,2.0,69,0.01,,---,0.09,VWS V13.01,2013-08-23 18:06:00,
2013-08-23 13:07:00,87.3,75.4,30.01,SSE,167,0.0,2.0,68,0.01,,---,0.09,VWS V13.01,2013-08-23 18:07:00,
2013-08-23 13:08:00,87.3,76.3,30.01,SSE,167,0.0,2.0,70,0.01,,---,0.09,VWS V13.01,2013-08-23 18:08:00,
2013-08-23 13:09:00,87.4,76.8,30.01,SSE,167,0.0,2.0,71,0.01,,---,0.09,VWS V13.01,2013-08-23 18:09:00,
2013-08-23 13:10:00,87.5,76.9,30.01,SSE,167,2.0,3.0,71,0.01,,---,0.09,VWS V13.01,2013-08-23 18:10:00,
2013-08-23 13:11:00,87.6,77.0,30.01,SSE,167,0.0,3.0,71,0.01,,---,0.09,VWS V13.01,2013-08-23 18:11:00,
2013-08-23 13:12:00,87.7,77.6,30.01,SSE,167,0.0,3.0,72,0.01,,---,0.09,VWS V13.01,2013-08-23 18:12:00,
2013-08-23 13:13:00,87.8,76.8,30.00,SSE,167,3.0,4.0,70,0.01,,---,0.09,VWS V13.01,2013-08-23 18:13:00,
2013-08-23 13:14:00,87.9,76.5,30.01,SSE,167,0.0,4.0,69,0.01,,---,0.09,VWS V13.01,2013-08-23 18:14:00,
2013-08-23 13:15:00,87.9,76.5,30.01,SSE,167,3.0,4.0,69,0.01,,---,0.09,VWS V13.01,2013-08-23 18:15:00,
2013-08-23 13:16:00,88.0,76.1,30.01,SSE,167,0.0,4.0,68,0.01,,---,0.09,VWS V13.01,2013-08-23 18:16:00,
2013-08-23 13:17:00,88.1,76.2,30.01,SSE,167,0.0,4.0,68,0.01,,---,0.09,VWS V13.01,2013-08-23 18:17:00,
2013-08-23 13:18:00,88.2,75.9,30.01,SSE,167,3.0,4.0,67,0.01,,---,0.09,VWS V13.01,2013-08-23 18:18:00,
2013-08-23 13:19:00,88.2,75.9,30.00,SSE,167,0.0,4.0,67,0.01,,---,0.09,VWS V13.01,2013-08-23 18:19:00,
2013-08-23 13:20:00,88.3,76.4,30.00,SSE,167,0.0,4.0,68,0.01,,---,0.09,VWS V13.01,2013-08-23 18:20:00,
2013-08-23 13:21:00,88.4,76.9,30.00,SSE,167,0.0,4.0,69,0.01,,---,0.09,VWS V13.01,2013-08-23 18:21:00,
2013-08-23 13:22:00,88.4,75.1,30.00,SSE,167,0.0,4.0,65,0.01,,---,0.09,VWS V13.01,2013-08-23 18:22:00,
2013-08-23 13:23:00,88.6,75.8,30.00,SSE,167,0.0,4.0,66,0.01,,---,0.09,VWS V13.01,2013-08-23 18:23:00,
2013-08-23 13:24:00,88.6,75.8,30.00,SSE,167,0.0,4.0,66,0.01,,---,0.09,VWS V13.01,2013-08-23 18:24:00,
2013-08-23 13:25:00,88.7,75.4,30.00,SSE,167,0.0,4.0,65,0.01,,---,0.09,VWS V13.01,2013-08-23 18:25:00,
2013-08-23 13:26:00,88.7,75.0,30.00,SSE,167,0.0,4.0,64,0.01,,---,0.09,VWS V13.01,2013-08-23 18:26:00,
2013-08-23 13:27:00,88.8,76.9,30.00,SSE,167,0.0,4.0,68,0.01,,---,0.09,VWS V13.01,2013-08-23 18:27:00,
2013-08-23 13:28:00,88.8,76.4,30.00,SSE,167,0.0,4.0,67,0.01,,---,0.09,VWS V13.01,2013-08-23 18:28:00,
2013-08-23 13:29:00,88.8,76.4,30.00,SSE,167,0.0,4.0,67,0.01,,---,0.09,VWS V13.01,2013-08-23 18:29:00,
2013-08-23 13:30:00,88.9,77.4,30.00,SSE,167,0.0,4.0,69,0.01,,---,0.09,VWS V13.01,2013-08-23 18:30:00,
2013-08-23 13:31:00,88.9,77.4,30.00,SSE,167,0.0,1.0,69,0.01,,---,0.09,VWS V13.01,2013-08-23 18:31:00,
2013-08-23 13:32:00,88.9,76.5,30.00,SSE,167,0.0,1.0,67,0.01,,---,0.09,VWS V13.01,2013-08-23 18:32:00,
2013-08-23 13:33:00,89.0,77.1,30.00,SSE,167,0.0,1.0,68,0.01,,---,0.09,VWS V13.01,2013-08-23 18:33:00,
2013-08-23 13:34:00,89.0,78.8,30.00,SSE,167,0.0,1.0,72,0.01,,---,0.09,VWS V13.01,2013-08-23 18:34:00,
2013-08-23 13:35:00,89.0,78.8,30.00,SSE,167,2.0,2.0,72,0.01,,---,0.09,VWS V13.01,2013-08-23 18:35:00,
2013-08-23 13:36:00,89.1,78.0,30.00,SSE,167,0.0,3.0,70,0.01,,---,0.09,VWS V13.01,2013-08-23 18:36:00,
2013-08-23 13:37:00,89.2,77.7,30.00,SSE,167,2.0,3.0,69,0.01,,---,0.09,VWS V13.01,2013-08-23 18:37:00,
2013-08-23 13:38:00,89.2,76.4,30.00,SSE,167,0.0,3.0,66,0.01,,---,0.09,VWS V13.01,2013-08-23 18:38:00,
2013-08-23 13:39:00,89.2,77.7,30.00,SSE,167,0.0,3.0,69,0.01,,---,0.09,VWS V13.01,2013-08-23 18:39:00,
2013-08-23 13:40:00,89.3,77.4,30.00,SSE,167,0.0,3.0,68,0.01,,---,0.09,VWS V13.01,2013-08-23 18:40:00,
2013-08-23 13:41:00,89.4,79.2,30.00,SSE,167,0.0,3.0,72,0.01,,---,0.09,VWS V13.01,2013-08-23 18:41:00,
2013-08-23 13:42:00,89.4,77.0,30.00,SSE,167,0.0,3.0,67,0.01,,---,0.09,VWS V13.01,2013-08-23 18:42:00,
2013-08-23 13:43:00,89.4,77.4,30.00,SSE,167,2.0,3.0,68,0.01,,---,0.09,VWS V13.01,2013-08-23 18:43:00,
2013-08-23 13:44:00,89.4,77.0,30.00,SSE,167,0.0,3.0,67,0.01,,---,0.09,VWS V13.01,2013-08-23 18:44:00,
2013-08-23 13:45:00,89.4,77.4,29.99,SSE,167,0.0,3.0,68,0.01,,---,0.09,VWS V13.01,2013-08-23 18:45:00,
2013-08-23 13:46:00,89.3,77.4,29.99,SSE,167,0.0,3.0,68,0.01,,---,0.09,VWS V13.01,2013-08-23 18:46:00,
2013-08-23 13:47:00,89.3,77.8,29.99,SSE,167,0.0,3.0,69,0.01,,---,0.09,VWS V13.01,2013-08-23 18:47:00,
2013-08-23 13:48:00,89.4,77.9,29.99,SSE,167,0.0,3.0,69,0.01,,---,0.09,VWS V13.01,2013-08-23 18:48:00,
2013-08-23 13:49:00,89.3,76.9,29.99,SSE,167,0.0,3.0,67,0.01,,---,0.09,VWS V13.01,2013-08-23 18:49:00,
2013-08-23 13:50:00,89.3,76.0,29.99,SSE,167,0.0,3.0,65,0.01,,---,0.09,VWS V13.01,2013-08-23 18:50:00,
2013-08-23 13:51:00,89.3,76.0,29.99,SSE,167,0.0,3.0,65,0.01,,---,0.09,VWS V13.01,2013-08-23 18:51:00,
2013-08-23 13:52:00,89.2,75.9,29.99,SSE,167,0.0,3.0,65,0.01,,---,0.09,VWS V13.01,2013-08-23 18:52:00,
2013-08-23 13:53:00,89.2,77.3,29.99,SSE,167,0.0,3.0,68,0.01,,---,0.09,VWS V13.01,2013-08-23 18:53:00,
2013-08-23 13:54:00,89.3,77.8,29.99,SSE,167,0.0,3.0,69,0.01,,---,0.09,VWS V13.01,2013-08-23 18:54:00,
2013-08-23 13:55:00,89.3,78.2,29.99,SSE,167,3.0,3.0,70,0.01,,---,0.09,VWS V13.01,2013-08-23 18:55:00,
2013-08-23 13:56:00,89.4,77.4,29.99,SSE,167,0.0,3.0,68,0.01,,---,0.09,VWS V13.01,2013-08-23 18:56:00,
2013-08-23 13:57:00,89.4,77.0,29.99,SSE,167,0.0,3.0,67,0.01,,---,0.09,VWS V13.01,2013-08-23 18:57:00,
2013-08-23 13:58:00,89.5,78.0,29.99,SSE,167,0.0,3.0,69,0.01,,---,0.09,VWS V13.01,2013-08-23 18:58:00,
2013-08-23 13:59:00,89.6,78.1,29.99,SSE,167,0.0,3.0,69,0.01,,---,0.09,VWS V13.01,2013-08-23 18:59:00,
2013-08-23 14:00:00,89.7,78.2,29.99,SSE,167,0.0,3.0,69,0.01,,---,0.09,VWS V13.01,2013-08-23 19:00:00,
2013-08-23 14:01:00,89.8,76.9,29.99,SSE,167,0.0,0.0,66,0.01,,---,0.09,VWS V13.01,2013-08-23 19:01:00,
2013-08-23 14:02:00,89.9,76.6,29.99,SSE,167,0.0,1.0,65,0.00,,---,0.09,VWS V13.01,2013-08-23 19:02:00,
2013-08-23 14:03:00,90.0,76.7,29.99,SSE,167,2.0,3.0,65,0.00,,---,0.09,VWS V13.01,2013-08-23 19:03:00,
2013-08-23 14:04:00,90.1,77.2,29.99,SSE,167,0.0,3.0,66,0.00,,---,0.09,VWS V13.01,2013-08-23 19:04:00,
2013-08-23 14:05:00,90.2,76.8,29.99,SSE,167,2.0,3.0,65,0.00,,---,0.09,VWS V13.01,2013-08-23 19:05:00,
2013-08-23 14:06:00,90.3,78.8,29.99,SSE,167,0.0,4.0,69,0.00,,---,0.09,VWS V13.01,2013-08-23 19:06:00,
2013-08-23 14:07:00,90.4,78.4,29.99,SSE,167,0.0,4.0,68,0.00,,---,0.09,VWS V13.01,2013-08-23 19:07:00,
2013-08-23 14:08:00,90.5,76.2,29.99,SSE,167,0.0,4.0,63,0.00,,---,0.09,VWS V13.01,2013-08-23 19:08:00,
2013-08-23 14:09:00,90.6,77.2,29.99,SSE,167,0.0,4.0,65,0.00,,---,0.09,VWS V13.01,2013-08-23 19:09:00,
2013-08-23 14:10:00,90.7,76.4,29.99,SSE,167,5.0,6.0,63,0.00,,---,0.09,VWS V13.01,2013-08-23 19:10:00,
2013-08-23 14:11:00,90.6,75.8,29.99,SSE,167,3.0,6.0,62,0.00,,---,0.09,VWS V13.01,2013-08-23 19:11:00,
2013-08-23 14:12:00,90.6,75.3,29.99,SSE,167,0.0,6.0,61,0.00,,---,0.09,VWS V13.01,2013-08-23 19:12:00,
2013-08-23 14:13:00,90.5,74.2,29.99,SSE,167,1.0,6.0,59,0.00,,---,0.09,VWS V13.01,2013-08-23 19:13:00,
2013-08-23 14:14:00,90.5,74.7,29.99,SSE,167,0.0,6.0,60,0.00,,---,0.09,VWS V13.01,2013-08-23 19:14:00,
2013-08-23 14:15:00,90.4,76.6,29.99,SSE,167,0.0,6.0,64,0.00,,---,0.09,VWS V13.01,2013-08-23 19:15:00,
2013-08-23 14:16:00,90.4,75.1,29.99,SSE,167,3.0,6.0,61,0.00,,---,0.09,VWS V13.01,2013-08-23 19:16:00,
2013-08-23 14:17:00,90.3,75.0,29.99,SSE,167,2.0,6.0,61,0.00,,---,0.09,VWS V13.01,2013-08-23 19:17:00,
2013-08-23 14:18:00,90.3,74.5,29.98,SSE,167,0.0,6.0,60,0.00,,---,0.09,VWS V13.01,2013-08-23 19:18:00,
2013-08-23 14:19:00,90.2,74.9,29.98,SSE,167,0.0,6.0,61,0.00,,---,0.09,VWS V13.01,2013-08-23 19:19:00,
2013-08-23 14:20:00,90.2,75.9,29.98,SSE,167,0.0,6.0,63,0.00,,---,0.09,VWS V13.01,2013-08-23 19:20:00,
2013-08-23 14:21:00,90.3,76.9,29.98,SSE,167,0.0,6.0,65,0.00,,---,0.09,VWS V13.01,2013-08-23 19:21:00,
2013-08-23 14:22:00,90.2,77.3,29.98,SSE,167,0.0,6.0,66,0.00,,---,0.09,VWS V13.01,2013-08-23 19:22:00,
2013-08-23 14:23:00,90.3,77.4,29.98,SSE,167,0.0,6.0,66,0.00,,---,0.09,VWS V13.01,2013-08-23 19:23:00,
2013-08-23 14:24:00,90.2,75.9,29.98,SSE,167,0.0,6.0,63,0.00,,---,0.09,VWS V13.01,2013-08-23 19:24:00,
2013-08-23 14:25:00,90.3,75.5,29.98,SSE,167,3.0,6.0,62,0.00,,---,0.09,VWS V13.01,2013-08-23 19:25:00,
2013-08-23 14:26:00,90.2,74.9,29.98,SSE,167,0.0,6.0,61,0.00,,---,0.09,VWS V13.01,2013-08-23 19:26:00,
2013-08-23 14:27:00,90.2,75.4,29.98,SSE,167,2.0,6.0,62,0.00,,---,0.09,VWS V13.01,2013-08-23 19:27:00,
2013-08-23 14:28:00,90.2,74.4,29.98,SSE,167,0.0,6.0,60,0.00,,---,0.09,VWS V13.01,2013-08-23 19:28:00,
2013-08-23 14:29:00,90.1,75.8,29.98,SSE,167,0.0,6.0,63,0.00,,---,0.09,VWS V13.01,2013-08-23 19:29:00,
2013-08-23 14:30:00,90.1,74.8,29.98,SSE,167,2.0,6.0,61,0.00,,---,0.09,VWS V13.01,2013-08-23 19:30:00,
2013-08-23 14:31:00,90.1,74.3,29.98,SSE,167,0.0,4.0,60,0.00,,---,0.09,VWS V13.01,2013-08-23 19:31:00,
2013-08-23 14:32:00,90.0,75.7,29.98,SSE,167,3.0,4.0,63,0.00,,---,0.09,VWS V13.01,2013-08-23 19:32:00,
2013-08-23 14:33:00,90.0,75.2,29.98,SSE,167,0.0,4.0,62,0.00,,---,0.09,VWS V13.01,2013-08-23 19:33:00,
2013-08-23 14:34:00,89.9,75.1,29.98,SSE,167,0.0,4.0,62,0.00,,---,0.09,VWS V13.01,2013-08-23 19:34:00,
2013-08-23 14:35:00,89.9,76.1,29.98,SSE,167,0.0,4.0,64,0.00,,---,0.09,VWS V13.01,2013-08-23 19:35:00,
2013-08-23 14:36:00,89.9,75.1,29.98,SSE,167,0.0,4.0,62,0.00,,---,0.09,VWS V13.01,2013-08-23 19:36:00,
2013-08-23 14:37:00,90.0,75.7,29.98,SSE,167,0.0,4.0,63,0.00,,---,0.09,VWS V13.01,2013-08-23 19:37:00,
2013-08-23 14:38:00,90.0,75.2,29.97,SSE,167,0.0,4.0,62,0.00,,---,0.09,VWS V13.01,2013-08-23 19:38:00,
2013-08-23 14:39:00,90.0,75.7,29.97,SSE,167,3.0,4.0,63,0.00,,---,0.09,VWS V13.01,2013-08-23 19:39:00,
2013-08-23 14:40:00,90.0,75.7,29.97,SSE,167,1.0,4.0,63,0.00,,---,0.09,VWS V13.01,2013-08-23 19:40:00,
2013-08-23 14:41:00,89.9,75.1,29.98,SSE,167,0.0,4.0,62,0.00,,---,0.09,VWS V13.01,2013-08-23 19:41:00,
2013-08-23 14:42:00,89.9,75.1,29.97,SSE,167,0.0,4.0,62,0.00,,---,0.09,VWS V13.01,2013-08-23 19:42:00,
2013-08-23 14:43:00,89.8,75.5,29.97,SSE,167,0.0,4.0,63,0.00,,---,0.09,VWS V13.01,2013-08-23 19:43:00,
2013-08-23 14:44:00,89.8,75.1,29.98,SSE,167,0.0,4.0,62,0.00,,---,0.09,VWS V13.01,2013-08-23 19:44:00,
2013-08-23 14:45:00,89.7,75.4,29.98,SSE,167,3.0,4.0,63,0.00,,---,0.09,VWS V13.01,2013-08-23 19:45:00,
2013-08-23 14:46:00,89.6,74.9,29.98,SSE,167,0.0,4.0,62,0.00,,---,0.09,VWS V13.01,2013-08-23 19:46:00,
2013-08-23 14:47:00,89.4,74.7,29.98,SSE,167,0.0,4.0,62,0.00,,---,0.09,VWS V13.01,2013-08-23 19:47:00,
2013-08-23 14:48:00,89.3,76.0,29.98,SSE,167,0.0,4.0,65,0.00,,---,0.09,VWS V13.01,2013-08-23 19:48:00,
2013-08-23 14:49:00,89.2,75.4,29.98,SSE,167,2.0,4.0,64,0.00,,---,0.09,VWS V13.01,2013-08-23 19:49:00,
2013-08-23 14:50:00,89.1,75.3,29.98,SSE,167,0.0,4.0,64,0.00,,---,0.09,VWS V13.01,2013-08-23 19:50:00,
2013-08-23 14:51:00,89.0,75.2,29.97,SSE,167,0.0,4.0,64,0.00,,---,0.09,VWS V13.01,2013-08-23 19:51:00,
2013-08-23 14:52:00,88.8,74.6,29.98,SSE,167,0.0,4.0,63,0.00,,---,0.09,VWS V13.01,2013-08-23 19:52:00,
2013-08-23 14:53:00,88.7,74.0,29.97,SSE,167,2.0,4.0,62,0.00,,---,0.09,VWS V13.01,2013-08-23 19:53:00,
2013-08-23 14:54:00,88.6,74.4,29.97,SSE,167,0.0,4.0,63,0.00,,---,0.09,VWS V13.01,2013-08-23 19:54:00,
2013-08-23 14:55:00,88.4,74.2,29.97,SSE,167,0.0,4.0,63,0.00,,---,0.09,VWS V13.01,2013-08-23 19:55:00,
2013-08-23 14:56:00,88.3,74.1,29.97,SSE,167,0.0,4.0,63,0.00,,---,0.09,VWS V13.01,2013-08-23 19:56:00,
2013-08-23 14:57:00,88.2,74.5,29.97,SSE,167,2.0,4.0,64,0.00,,---,0.09,VWS V13.01,2013-08-23 19:57:00,
2013-08-23 14:58:00,88.2,74.5,29.97,SSE,167,0.0,4.0,64,0.00,,---,0.09,VWS V13.01,2013-08-23 19:58:00,
2013-08-23 14:59:00,88.1,75.3,29.97,SSE,167,0.0,4.0,66,0.00,,---,0.09,VWS V13.01,2013-08-23 19:59:00,
2013-08-23 15:00:00,88.0,75.2,29.97,SSE,167,2.0,4.0,66,0.00,,---,0.09,VWS V13.01,2013-08-23 20:00:00,
2013-08-23 15:01:00,87.8,75.5,29.97,SSE,167,4.0,4.0,67,0.00,,---,0.09,VWS V13.01,2013-08-23 20:01:00,
2013-08-23 15:02:00,87.8,75.9,29.97,SSE,167,0.0,4.0,68,0.00,,---,0.09,VWS V13.01,2013-08-23 20:02:00,
2013-08-23 15:03:00,87.6,75.7,29.97,SSE,167,4.0,5.0,68,0.00,,---,0.09,VWS V13.01,2013-08-23 20:03:00,
2013-08-23 15:04:00,87.4,76.0,29.97,ESE,107,10.0,13.0,69,0.00,,---,0.09,VWS V13.01,2013-08-23 20:04:00,
2013-08-23 15:05:00,87.1,75.7,29.97,ESE,107,3.0,13.0,69,0.00,,---,0.09,VWS V13.01,2013-08-23 20:05:00,
2013-08-23 15:06:00,87.0,76.5,29.97,ESE,106,5.0,13.0,71,0.00,,---,0.09,VWS V13.01,2013-08-23 20:06:00,
2013-08-23 15:07:00,86.7,76.2,29.97,ESE,107,4.0,13.0,71,0.00,,---,0.09,VWS V13.01,2013-08-23 20:07:00,
2013-08-23 15:08:00,86.4,75.9,29.97,ESE,107,2.0,13.0,71,0.00,,---,0.09,VWS V13.01,2013-08-23 20:08:00,
2013-08-23 15:09:00,86.2,76.5,29.97,ESE,107,5.0,13.0,73,0.00,,---,0.09,VWS V13.01,2013-08-23 20:09:00,
2013-08-23 15:10:00,86.0,75.9,29.97,ESE,107,4.0,13.0,72,0.00,,---,0.09,VWS V13.01,2013-08-23 20:10:00,
2013-08-23 15:11:00,85.7,76.5,29.98,ESE,106,0.0,13.0,74,0.00,,---,0.09,VWS V13.01,2013-08-23 20:11:00,
2013-08-23 15:12:00,85.5,76.7,29.98,ESE,106,2.0,13.0,75,0.00,,---,0.09,VWS V13.01,2013-08-23 20:12:00,
2013-08-23 15:13:00,85.4,76.6,29.98,ESE,107,5.0,13.0,75,0.00,,---,0.09,VWS V13.01,2013-08-23 20:13:00,
2013-08-23 15:14:00,85.2,76.8,29.98,ESE,107,3.0,13.0,76,0.00,,---,0.09,VWS V13.01,2013-08-23 20:14:00,
2013-08-23 15:15:00,84.9,76.5,29.99,ESE,106,3.0,13.0,76,0.00,,---,0.09,VWS V13.01,2013-08-23 20:15:00,
2013-08-23 15:16:00,84.7,75.1,29.99,ESE,107,0.0,13.0,73,0.00,,---,0.09,VWS V13.01,2013-08-23 20:16:00,
2013-08-23 15:17:00,84.5,74.5,29.98,ESE,106,1.0,13.0,72,0.00,,---,0.09,VWS V13.01,2013-08-23 20:17:00,
2013-08-23 15:18:00,84.1,74.5,29.99,ESE,107,5.0,13.0,73,0.00,,---,0.09,VWS V13.01,2013-08-23 20:18:00,
2013-08-23 15:19:00,83.8,73.4,29.99,ESE,107,5.0,13.0,71,0.00,,---,0.09,VWS V13.01,2013-08-23 20:19:00,
2013-08-23 15:20:00,83.5,72.7,29.99,ESE,107,3.0,13.0,70,0.00,,---,0.09,VWS V13.01,2013-08-23 20:20:00,
2013-08-23 15:21:00,83.1,72.3,29.99,ESE,106,0.0,13.0,70,0.00,,---,0.09,VWS V13.01,2013-08-23 20:21:00,
2013-08-23 15:22:00,82.7,72.3,29.99,ESE,106,3.0,13.0,71,0.00,,---,0.09,VWS V13.01,2013-08-23 20:22:00,
2013-08-23 15:23:00,82.5,72.2,29.99,ESE,106,0.0,13.0,71,0.00,,---,0.09,VWS V13.01,2013-08-23 20:23:00,
2013-08-23 15:24:00,82.1,71.8,29.99,ESE,106,2.0,13.0,71,0.00,,---,0.09,VWS V13.01,2013-08-23 20:24:00,
2013-08-23 15:25:00,81.8,71.9,29.99,ESE,107,0.0,13.0,72,0.00,,---,0.09,VWS V13.01,2013-08-23 20:25:00,
2013-08-23 15:26:00,81.4,71.9,29.99,ESE,107,0.0,13.0,73,0.00,,---,0.09,VWS V13.01,2013-08-23 20:26:00,
2013-08-23 15:27:00,81.1,71.6,30.00,ESE,107,0.0,13.0,73,0.00,,---,0.09,VWS V13.01,2013-08-23 20:27:00,
2013-08-23 15:28:00,80.9,71.4,30.00,ESE,106,0.0,13.0,73,0.00,,---,0.09,VWS V13.01,2013-08-23 20:28:00,
2013-08-23 15:29:00,80.6,71.6,29.99,ESE,106,0.0,13.0,74,0.00,,---,0.09,VWS V13.01,2013-08-23 20:29:00,
2013-08-23 15:30:00,80.4,71.4,29.99,ESE,106,0.0,13.0,74,0.00,,---,0.09,VWS V13.01,2013-08-23 20:30:00,
2013-08-23 15:31:00,80.2,71.6,30.00,ESE,107,0.0,0.0,75,0.00,,---,0.09,VWS V13.01,2013-08-23 20:31:00,
2013-08-23 15:32:00,80.1,71.5,30.00,ESE,107,0.0,0.0,75,0.00,,---,0.09,VWS V13.01,2013-08-23 20:32:00,
2013-08-23 15:33:00,80.0,71.8,30.00,ESE,107,0.0,0.0,76,0.00,,---,0.09,VWS V13.01,2013-08-23 20:33:00,
2013-08-23 15:34:00,79.9,71.7,30.00,ESE,107,0.0,0.0,76,0.00,,---,0.09,VWS V13.01,2013-08-23 20:34:00,
2013-08-23 15:35:00,79.8,71.6,30.00,ESE,106,0.0,0.0,76,0.00,,---,0.09,VWS V13.01,2013-08-23 20:35:00,
2013-08-23 15:36:00,79.7,71.5,30.00,ESE,106,0.0,0.0,76,0.00,,---,0.09,VWS V13.01,2013-08-23 20:36:00,
2013-08-23 15:37:00,79.7,71.5,30.00,ESE,107,0.0,2.0,76,0.00,,---,0.09,VWS V13.01,2013-08-23 20:37:00,
2013-08-23 15:38:00,79.7,71.9,29.99,ESE,107,0.0,2.0,77,0.00,,---,0.09,VWS V13.01,2013-08-23 20:38:00,
2013-08-23 15:39:00,79.6,71.8,29.99,ESE,107,0.0,2.0,77,0.00,,---,0.09,VWS V13.01,2013-08-23 20:39:00,
2013-08-23 15:40:00,79.7,71.9,29.99,ESE,107,0.0,2.0,77,0.00,,---,0.09,VWS V13.01,2013-08-23 20:40:00,
2013-08-23 15:41:00,79.7,71.9,29.99,ESE,106,0.0,2.0,77,0.00,,---,0.09,VWS V13.01,2013-08-23 20:41:00,
2013-08-23 15:42:00,79.7,71.9,29.99,ESE,106,2.0,3.0,77,0.00,,---,0.09,VWS V13.01,2013-08-23 20:42:00,
2013-08-23 15:43:00,79.7,71.9,29.99,ESE,107,1.0,3.0,77,0.00,,---,0.09,VWS V13.01,2013-08-23 20:43:00,
2013-08-23 15:44:00,79.8,71.9,29.99,ESE,107,0.0,3.0,77,0.00,,---,0.09,VWS V13.01,2013-08-23 20:44:00,
2013-08-23 15:45:00,79.8,72.3,29.99,ESE,107,0.0,3.0,78,0.00,,---,0.09,VWS V13.01,2013-08-23 20:45:00,
2013-08-23 15:46:00,79.8,72.3,29.99,ESE,107,0.0,3.0,78,0.00,,---,0.09,VWS V13.01,2013-08-23 20:46:00,
2013-08-23 15:47:00,79.9,73.2,29.99,ESE,107,0.0,3.0,80,0.00,,---,0.09,VWS V13.01,2013-08-23 20:47:00,
2013-08-23 15:48:00,80.0,73.3,29.99,ESE,107,0.0,3.0,80,0.00,,---,0.09,VWS V13.01,2013-08-23 20:48:00,
2013-08-23 15:49:00,80.0,73.3,29.98,ESE,107,0.0,3.0,80,0.00,,---,0.09,VWS V13.01,2013-08-23 20:49:00,
2013-08-23 15:50:00,80.1,73.8,29.98,ESE,106,0.0,3.0,81,0.00,,---,0.09,VWS V13.01,2013-08-23 20:50:00,
2013-08-23 15:51:00,80.1,73.8,29.98,ESE,107,0.0,3.0,81,0.00,,---,0.09,VWS V13.01,2013-08-23 20:51:00,
2013-08-23 15:52:00,80.2,73.8,29.98,ESE,107,0.0,3.0,81,0.00,,---,0.09,VWS V13.01,2013-08-23 20:52:00,
2013-08-23 15:53:00,80.2,73.8,29.98,ESE,107,0.0,3.0,81,0.00,,---,0.09,VWS V13.01,2013-08-23 20:53:00,
2013-08-23 15:54:00,80.3,73.9,29.98,ESE,107,0.0,3.0,81,0.00,,---,0.09,VWS V13.01,2013-08-23 20:54:00,
2013-08-23 15:55:00,80.3,73.9,29.98,ESE,107,0.0,3.0,81,0.00,,---,0.09,VWS V13.01,2013-08-23 20:55:00,
2013-08-23 15:56:00,80.3,74.3,29.98,ESE,106,2.0,4.0,82,0.00,,---,0.09,VWS V13.01,2013-08-23 20:56:00,
2013-08-23 15:57:00,80.4,74.4,29.99,ESE,107,2.0,5.0,82,0.00,,---,0.09,VWS V13.01,2013-08-23 20:57:00,
2013-08-23 15:58:00,80.4,74.4,29.98,ESE,106,2.0,5.0,82,0.00,,---,0.09,VWS V13.01,2013-08-23 20:58:00,
2013-08-23 15:59:00,80.5,74.5,29.98,ESE,107,0.0,5.0,82,0.00,,---,0.09,VWS V13.01,2013-08-23 20:59:00,
2013-08-23 16:00:00,80.5,74.5,29.99,ESE,107,0.0,5.0,82,0.00,,---,0.09,VWS V13.01,2013-08-23 21:00:00,
2013-08-23 16:01:00,80.5,74.9,29.98,ESE,107,0.0,0.0,83,0.00,,---,0.09,VWS V13.01,2013-08-23 21:01:00,
2013-08-23 16:02:00,80.5,74.9,29.98,ESE,107,0.0,0.0,83,0.00,,---,0.09,VWS V13.01,2013-08-23 21:02:00,
2013-08-23 16:03:00,80.6,75.0,29.98,ESE,106,2.0,2.0,83,0.00,,---,0.09,VWS V13.01,2013-08-23 21:03:00,
2013-08-23 16:04:00,80.6,75.3,29.98,ESE,106,2.0,3.0,84,0.00,,---,0.09,VWS V13.01,2013-08-23 21:04:00,
2013-08-23 16:05:00,80.6,75.0,29.99,ESE,106,0.0,3.0,83,0.00,,---,0.09,VWS V13.01,2013-08-23 21:05:00,
2013-08-23 16:06:00,80.6,75.3,29.99,ESE,107,0.0,3.0,84,0.00,,---,0.09,VWS V13.01,2013-08-23 21:06:00,
2013-08-23 16:07:00,80.7,75.1,29.99,ESE,106,3.0,4.0,83,0.00,,---,0.09,VWS V13.01,2013-08-23 21:07:00,
2013-08-23 16:08:00,80.7,75.1,29.99,ESE,107,0.0,4.0,83,0.00,,---,0.09,VWS V13.01,2013-08-23 21:08:00,
2013-08-23 16:09:00,80.7,75.4,29.99,ESE,106,0.0,4.0,84,0.00,,---,0.09,VWS V13.01,2013-08-23 21:09:00,
2013-08-23 16:10:00,80.8,75.5,30.00,ESE,106,0.0,4.0,84,0.00,,---,0.09,VWS V13.01,2013-08-23 21:10:00,
2013-08-23 16:11:00,80.8,75.5,29.99,ESE,106,0.0,4.0,84,0.00,,---,0.09,VWS V13.01,2013-08-23 21:11:00,
2013-08-23 16:12:00,80.9,75.6,30.00,ESE,107,0.0,4.0,84,0.00,,---,0.09,VWS V13.01,2013-08-23 21:12:00,
2013-08-23 16:13:00,81.0,75.7,30.00,ESE,107,0.0,4.0,84,0.00,,---,0.09,VWS V13.01,2013-08-23 21:13:00,
2013-08-23 16:14:00,81.0,75.7,29.99,ESE,107,0.0,4.0,84,0.00,,---,0.09,VWS V13.01,2013-08-23 21:14:00,
2013-08-23 16:15:00,81.1,75.4,29.99,ESE,107,3.0,4.0,83,0.00,,---,0.09,VWS V13.01,2013-08-23 21:15:00,
2013-08-23 16:16:00,81.2,75.6,29.99,ESE,106,0.0,4.0,83,0.00,,---,0.09,VWS V13.01,2013-08-23 21:16:00,
2013-08-23 16:17:00,81.3,75.7,29.99,ESE,106,0.0,4.0,83,0.00,,---,0.09,VWS V13.01,2013-08-23 21:17:00,
2013-08-23 16:18:00,81.4,75.7,29.99,ESE,106,0.0,4.0,83,0.00,,---,0.09,VWS V13.01,2013-08-23 21:18:00,
2013-08-23 16:19:00,81.5,75.8,29.99,ESE,107,0.0,4.0,83,0.00,,---,0.09,VWS V13.01,2013-08-23 21:19:00,
2013-08-23 16:20:00,81.6,75.9,29.99,ESE,107,0.0,4.0,83,0.00,,---,0.09,VWS V13.01,2013-08-23 21:20:00,
2013-08-23 16:21:00,81.7,76.0,29.99,ESE,107,0.0,4.0,83,0.00,,---,0.09,VWS V13.01,2013-08-23 21:21:00,
2013-08-23 16:22:00,81.8,75.8,29.99,ESE,107,0.0,4.0,82,0.00,,---,0.09,VWS V13.01,2013-08-23 21:22:00,
2013-08-23 16:23:00,82.0,76.3,29.99,ESE,106,0.0,4.0,83,0.00,,---,0.09,VWS V13.01,2013-08-23 21:23:00,
2013-08-23 16:24:00,82.1,76.4,29.99,ESE,106,0.0,4.0,83,0.00,,---,0.09,VWS V13.01,2013-08-23 21:24:00,
2013-08-23 16:25:00,82.2,75.8,29.99,ESE,107,0.0,4.0,81,0.00,,---,0.09,VWS V13.01,2013-08-23 21:25:00,
2013-08-23 16:26:00,82.3,75.9,30.00,ESE,107,2.0,4.0,81,0.00,,---,0.09,VWS V13.01,2013-08-23 21:26:00,
2013-08-23 16:27:00,82.4,75.2,29.99,ESE,107,0.0,4.0,79,0.00,,---,0.09,VWS V13.01,2013-08-23 21:27:00,
2013-08-23 16:28:00,82.5,75.7,30.00,ESE,107,0.0,4.0,80,0.00,,---,0.09,VWS V13.01,2013-08-23 21:28:00,
2013-08-23 16:29:00,82.5,74.9,30.00,ESE,106,0.0,4.0,78,0.00,,---,0.09,VWS V13.01,2013-08-23 21:29:00,
2013-08-23 16:30:00,82.6,75.8,29.99,ESE,106,0.0,4.0,80,0.00,,---,0.09,VWS V13.01,2013-08-23 21:30:00,
2013-08-23 16:31:00,82.7,75.9,29.99,ESE,107,0.0,1.0,80,0.00,,---,0.09,VWS V13.01,2013-08-23 21:31:00,
2013-08-23 16:32:00,82.8,75.6,29.99,ESE,107,0.0,1.0,79,0.00,,---,0.09,VWS V13.01,2013-08-23 21:32:00,
2013-08-23 16:33:00,82.8,75.6,29.99,ESE,107,3.0,4.0,79,0.00,,---,0.09,VWS V13.01,2013-08-23 21:33:00,
2013-08-23 16:34:00,82.8,74.9,29.99,ESE,107,0.0,4.0,77,0.00,,---,0.09,VWS V13.01,2013-08-23 21:34:00,
2013-08-23 16:35:00,82.8,75.2,29.99,ESE,107,0.0,4.0,78,0.00,,---,0.09,VWS V13.01,2013-08-23 21:35:00,
2013-08-23 16:36:00,82.9,75.3,29.99,ESE,106,1.0,4.0,78,0.00,,---,0.09,VWS V13.01,2013-08-23 21:36:00,
2013-08-23 16:37:00,82.9,75.7,29.99,ESE,106,0.0,4.0,79,0.00,,---,0.09,VWS V13.01,2013-08-23 21:37:00,
2013-08-23 16:38:00,82.9,75.7,29.99,ESE,107,0.0,4.0,79,0.00,,---,0.09,VWS V13.01,2013-08-23 21:38:00,
2013-08-23 16:39:00,83.0,75.8,29.99,ESE,107,0.0,4.0,79,0.00,,---,0.09,VWS V13.01,2013-08-23 21:39:00,
2013-08-23 16:40:00,83.0,75.8,29.99,ESE,107,0.0,4.0,79,0.00,,---,0.09,VWS V13.01,2013-08-23 21:40:00,
2013-08-23 16:41:00,83.0,75.8,30.00,ESE,107,0.0,4.0,79,0.00,,---,0.09,VWS V13.01,2013-08-23 21:41:00,
2013-08-23 16:42:00,83.0,75.8,29.99,ESE,107,0.0,4.0,79,0.00,,---,0.09,VWS V13.01,2013-08-23 21:42:00,
2013-08-23 16:43:00,83.0,76.2,29.99,ESE,107,0.0,4.0,80,0.00,,---,0.09,VWS V13.01,2013-08-23 21:43:00,
2013-08-23 16:44:00,83.0,75.8,29.99,ESE,107,3.0,4.0,79,0.00,,---,0.09,VWS V13.01,2013-08-23 21:44:00,
2013-08-23 16:45:00,83.0,75.8,29.99,ESE,106,0.0,4.0,79,0.00,,---,0.09,VWS V13.01,2013-08-23 21:45:00,
2013-08-23 16:46:00,83.0,76.2,30.00,ESE,107,0.0,4.0,80,0.00,,---,0.09,VWS V13.01,2013-08-23 21:46:00,
2013-08-23 16:47:00,83.0,76.2,30.00,ESE,107,0.0,4.0,80,0.00,,---,0.09,VWS V13.01,2013-08-23 21:47:00,
2013-08-23 16:48:00,82.9,75.7,30.00,ESE,107,0.0,4.0,79,0.00,,---,0.09,VWS V13.01,2013-08-23 21:48:00,
2013-08-23 16:49:00,82.9,75.7,29.99,ESE,107,0.0,4.0,79,0.00,,---,0.09,VWS V13.01,2013-08-23 21:49:00,
2013-08-23 16:50:00,82.9,76.1,29.99,ESE,107,0.0,4.0,80,0.00,,---,0.09,VWS V13.01,2013-08-23 21:50:00,
2013-08-23 16:51:00,82.9,76.1,29.99,ESE,106,0.0,4.0,80,0.00,,---,0.09,VWS V13.01,2013-08-23 21:51:00,
2013-08-23 16:52:00,82.9,76.1,30.00,ESE,106,0.0,4.0,80,0.00,,---,0.09,VWS V13.01,2013-08-23 21:52:00,
2013-08-23 16:53:00,83.0,76.2,30.00,ESE,107,0.0,4.0,80,0.00,,---,0.09,VWS V13.01,2013-08-23 21:53:00,
2013-08-23 16:54:00,83.0,76.2,29.99,ESE,107,0.0,4.0,80,0.00,,---,0.09,VWS V13.01,2013-08-23 21:54:00,
2013-08-23 16:55:00,83.0,76.2,30.00,ESE,107,0.0,4.0,80,0.00,,---,0.09,VWS V13.01,2013-08-23 21:55:00,
2013-08-23 16:56:00,83.0,76.2,29.99,ESE,107,0.0,4.0,80,0.00,,---,0.09,VWS V13.01,2013-08-23 21:56:00,
2013-08-23 16:57:00,83.0,76.6,30.00,ESE,106,0.0,4.0,81,0.00,,---,0.09,VWS V13.01,2013-08-23 21:57:00,
2013-08-23 16:58:00,83.1,76.7,30.00,ESE,107,0.0,4.0,81,0.00,,---,0.09,VWS V13.01,2013-08-23 21:58:00,
2013-08-23 16:59:00,83.1,76.3,29.99,ESE,106,0.0,4.0,80,0.00,,---,0.09,VWS V13.01,2013-08-23 21:59:00,
2013-08-23 17:00:00,83.1,76.3,29.99,ESE,107,0.0,4.0,80,0.00,,---,0.09,VWS V13.01,2013-08-23 22:00:00,
2013-08-23 17:01:00,83.1,76.3,29.99,ESE,107,0.0,1.0,80,0.00,,---,0.09,VWS V13.01,2013-08-23 22:01:00,
2013-08-23 17:02:00,83.1,76.3,29.99,ESE,106,0.0,1.0,80,0.00,,---,0.09,VWS V13.01,2013-08-23 22:02:00,
2013-08-23 17:03:00,83.1,76.7,29.99,ESE,106,0.0,1.0,81,0.00,,---,0.09,VWS V13.01,2013-08-23 22:03:00,
2013-08-23 17:04:00,83.2,76.8,29.99,ESE,106,0.0,1.0,81,0.00,,---,0.09,VWS V13.01,2013-08-23 22:04:00,
2013-08-23 17:05:00,83.1,76.7,29.99,ESE,107,0.0,6.0,81,0.00,,---,0.09,VWS V13.01,2013-08-23 22:05:00,
2013-08-23 17:06:00,83.2,76.8,29.99,ESE,107,0.0,6.0,81,0.00,,---,0.09,VWS V13.01,2013-08-23 22:06:00,
2013-08-23 17:07:00,83.2,76.8,29.99,ESE,107,0.0,6.0,81,0.00,,---,0.09,VWS V13.01,2013-08-23 22:07:00,
2013-08-23 17:08:00,83.2,76.8,29.99,ESE,107,0.0,6.0,81,0.00,,---,0.09,VWS V13.01,2013-08-23 22:08:00,
2013-08-23 17:09:00,83.2,76.8,29.99,ESE,107,0.0,6.0,81,0.00,,---,0.09,VWS V13.01,2013-08-23 22:09:00,
2013-08-23 17:10:00,83.2,76.8,29.99,ESE,107,0.0,6.0,81,0.00,,---,0.09,VWS V13.01,2013-08-23 22:10:00,
2013-08-23 17:11:00,83.3,76.9,29.99,ESE,106,0.0,6.0,81,0.00,,---,0.09,VWS V13.01,2013-08-23 22:11:00,
2013-08-23 17:12:00,83.3,76.9,29.99,ESE,107,0.0,6.0,81,0.00,,---,0.09,VWS V13.01,2013-08-23 22:12:00,
2013-08-23 17:13:00,83.3,76.9,30.00,ESE,107,0.0,6.0,81,0.00,,---,0.09,VWS V13.01,2013-08-23 22:13:00,
2013-08-23 17:14:00,83.3,76.9,30.00,ESE,107,0.0,6.0,81,0.00,,---,0.09,VWS V13.01,2013-08-23 22:14:00,
2013-08-23 17:15:00,83.4,76.6,30.00,ESE,107,0.0,6.0,80,0.00,,---,0.09,VWS V13.01,2013-08-23 22:15:00,
2013-08-23 17:16:00,83.3,76.5,30.00,ESE,107,0.0,6.0,80,0.00,,---,0.09,VWS V13.01,2013-08-23 22:16:00,
2013-08-23 17:17:00,83.3,76.5,29.99,ESE,106,0.0,6.0,80,0.00,,---,0.09,VWS V13.01,2013-08-23 22:17:00,
2013-08-23 17:18:00,83.3,76.5,29.99,ESE,107,1.0,6.0,80,0.00,,---,0.09,VWS V13.01,2013-08-23 22:18:00,
2013-08-23 17:19:00,83.3,76.5,29.99,ESE,107,0.0,6.0,80,0.00,,---,0.09,VWS V13.01,2013-08-23 22:19:00,
2013-08-23 17:20:00,83.2,76.4,29.99,ESE,106,4.0,6.0,80,0.00,,---,0.09,VWS V13.01,2013-08-23 22:20:00,
2013-08-23 17:21:00,83.2,76.4,29.99,ESE,107,6.0,7.0,80,0.00,,---,0.09,VWS V13.01,2013-08-23 22:21:00,
2013-08-23 17:22:00,83.2,76.4,29.99,ESE,107,0.0,7.0,80,0.00,,---,0.09,VWS V13.01,2013-08-23 22:22:00,
2013-08-23 17:23:00,83.1,75.9,30.00,ESE,107,6.0,8.0,79,0.00,,---,0.09,VWS V13.01,2013-08-23 22:23:00,
2013-08-23 17:24:00,83.1,75.9,30.00,ESE,106,0.0,8.0,79,0.00,,---,0.09,VWS V13.01,2013-08-23 22:24:00,
2013-08-23 17:25:00,83.1,76.3,29.99,ESE,106,2.0,8.0,80,0.00,,---,0.09,VWS V13.01,2013-08-23 22:25:00,
2013-08-23 17:26:00,83.1,76.3,29.99,ESE,106,0.0,8.0,80,0.00,,---,0.09,VWS V13.01,2013-08-23 22:26:00,
2013-08-23 17:27:00,83.1,76.3,29.99,ESE,107,0.0,8.0,80,0.00,,---,0.09,VWS V13.01,2013-08-23 22:27:00,
2013-08-23 17:28:00,83.0,76.2,29.99,ESE,107,0.0,8.0,80,0.00,,---,0.09,VWS V13.01,2013-08-23 22:28:00,
2013-08-23 17:29:00,83.1,75.9,29.99,ESE,107,3.0,8.0,79,0.00,,---,0.09,VWS V13.01,2013-08-23 22:29:00,
2013-08-23 17:30:00,83.0,75.8,29.99,ESE,107,4.0,8.0,79,0.00,,---,0.09,VWS V13.01,2013-08-23 22:30:00,
2013-08-23 17:31:00,83.0,75.8,29.99,ESE,106,0.0,4.0,79,0.00,,---,0.09,VWS V13.01,2013-08-23 22:31:00,
2013-08-23 17:32:00,83.0,76.2,29.99,ESE,106,0.0,4.0,80,0.00,,---,0.09,VWS V13.01,2013-08-23 22:32:00,
2013-08-23 18:00:00,82.8,76.0,30.00,ESE,112,0.0,5.0,80,0.00,,---,0.09,VWS V13.01,2013-08-23 23:00:00,
2013-08-23 18:30:00,82.2,76.2,30.00,ESE,112,0.0,4.0,82,0.01,,---,0.10,VWS V13.01,2013-08-23 23:30:00,
2013-08-23 19:00:00,80.8,76.2,30.00,ESE,112,0.0,0.0,86,0.04,,---,0.13,VWS V13.01,2013-08-24 00:00:00,
2013-08-23 19:30:00,78.5,75.3,30.01,ESE,112,0.0,1.0,90,0.08,,---,0.17,VWS V13.01,2013-08-24 00:30:00,
2013-08-23 20:00:00,76.6,74.1,30.02,ESE,112,0.0,0.0,92,0.10,,---,0.20,VWS V13.01,2013-08-24 01:00:00,
2013-08-23 20:30:00,75.7,73.2,30.03,ESE,112,0.0,0.0,92,0.10,,---,0.23,VWS V13.01,2013-08-24 01:30:00,
2013-08-23 21:00:00,75.1,72.9,30.03,ESE,112,0.0,1.0,93,0.08,,---,0.25,VWS V13.01,2013-08-24 02:00:00,
2013-08-23 21:30:00,74.5,72.7,30.03,ESE,112,0.0,0.0,94,0.06,,---,0.26,VWS V13.01,2013-08-24 02:30:00,
2013-08-23 22:00:00,73.8,72.0,30.04,ESE,112,0.0,0.0,94,0.04,,---,0.27,VWS V13.01,2013-08-24 03:00:00,
2013-08-23 22:30:00,72.9,71.4,30.04,ESE,112,0.0,0.0,95,0.02,,---,0.27,VWS V13.01,2013-08-24 03:30:00,
2013-08-23 23:00:00,72.3,70.8,30.05,ESE,112,0.0,0.0,95,0.02,,---,0.28,VWS V13.01,2013-08-24 04:00:00,
2013-08-23 23:30:00,71.6,70.4,30.05,ESE,112,0.0,0.0,96,0.01,,---,0.28,VWS V13.01,2013-08-24 04:30:00,